GEFSMA_con_probscp_120.txt.gz
Probability
16 13 15 13 7 6 9 11 9 6 4 2 1 0 0 0 1 1 2 4 4 3 3 1 1 1 1 2 2 1 2 2 1 0 0 0 0 0 0 0 0 0 0
17 16 16 14 10 8 11 13 11 8 5 3 2 1 1 0 2 3 2 3 2 2 3 3 3 2 1 1 1 0 1 1 1 0 0 0 0 0 0 0 0 0 0
19 18 17 16 15 15 17 19 16 12 8 5 5 5 5 4 5 5 5 4 3 3 4 5 6 5 4 3 2 1 1 1 1 1 0 0 0 0 0 0 0 0 0
20 22 20 19 20 21 24 26 25 22 17 12 11 11 10 9 9 10 9 8 7 7 7 8 9 9 10 9 6 4 3 2 3 2 1 1 0 0 0 0 0 0 0
20 23 25 24 22 24 28 30 31 32 28 21 15 12 12 13 14 14 13 11 10 9 9 10 11 13 15 13 9 6 5 4 3 3 2 2 1 1 1 0 0 0 0
19 20 22 22 23 26 29 30 32 34 32 25 15 12 13 14 16 17 16 14 12 8 7 10 14 15 14 12 11 9 8 5 3 3 3 2 2 2 2 1 1 0 0
16 16 16 17 22 26 27 27 28 29 27 22 17 16 17 17 16 16 17 16 13 8 5 9 14 16 13 10 12 12 10 6 4 3 3 2 3 4 3 2 1 0 0
13 14 16 17 19 22 23 22 23 23 21 20 21 22 21 17 14 12 14 15 13 9 8 10 14 16 14 13 13 12 10 7 5 4 2 1 2 3 3 2 1 0 0
11 13 15 17 17 18 19 18 18 19 18 19 23 25 22 17 11 9 10 13 12 11 11 13 14 15 14 15 15 11 7 5 4 3 2 0 0 1 1 0 0 1 1
8 9 10 12 14 15 15 15 15 17 18 19 21 24 23 18 13 10 9 11 11 11 13 14 15 15 15 15 14 10 4 2 2 3 2 0 0 0 0 0 1 2 2
6 6 7 9 11 11 12 11 12 15 17 17 20 22 21 19 17 13 10 10 10 10 11 13 16 18 16 14 12 7 2 0 0 1 1 0 0 0 0 0 1 3 3
3 3 5 7 9 9 9 8 10 12 13 15 19 20 18 17 18 17 15 12 10 10 10 11 14 16 15 13 9 5 1 0 0 0 0 0 0 0 0 0 1 2 2
1 1 2 4 5 6 6 6 7 8 8 11 13 15 14 14 16 20 20 16 13 11 8 8 10 11 10 10 8 4 1 0 0 0 0 0 0 0 0 0 1 1 1
0 0 1 1 2 3 4 4 4 4 4 5 6 9 10 11 14 20 21 18 14 12 8 6 7 9 8 8 6 4 2 1 0 0 0 0 0 0 0 0 0 0 0
0 0 0 0 0 1 1 1 1 1 1 1 2 4 7 8 12 17 18 16 14 12 8 6 6 8 7 5 4 4 3 1 0 0 0 0 0 0 0 0 0 0 0
0 0 0 0 0 0 0 0 0 0 0 0 1 2 3 5 8 12 13 14 13 11 8 7 6 5 4 3 2 3 3 1 0 0 0 0 0 0 0 0 0 0 0
0 0 0 0 0 0 0 0 0 0 0 0 0 0 1 2 4 8 9 11 11 10 8 6 4 2 1 1 2 3 3 2 1 0 0 0 0 0 0 0 0 0 0
0 0 0 0 0 0 0 0 0 0 0 0 0 1 2 2 3 5 6 7 9 10 8 5 2 1 0 0 1 2 2 2 1 0 0 0 0 0 0 0 0 0 0
0 0 0 0 0 0 0 0 0 0 0 0 0 1 2 2 2 3 4 5 7 8 7 4 1 0 0 0 0 1 1 1 0 0 0 0 0 0 0 0 0 0 0
0 0 0 0 0 0 0 0 0 0 0 0 0 0 1 1 0 1 2 4 6 6 5 3 1 0 0 0 0 0 0 0 0 0 0 0 0 0 0 0 0 0 0
0 0 0 0 0 0 0 0 0 0 0 0 0 0 0 0 0 0 1 3 5 5 3 1 0 0 0 0 0 0 0 0 0 0 0 0 0 0 0 0 0 0 0
0 0 0 0 0 0 0 0 0 0 0 0 0 0 0 0 0 0 0 1 2 3 1 0 0 0 0 0 0 0 0 0 0 0 0 0 0 0 0 0 0 0 0
0 0 0 0 0 0 0 0 0 0 0 0 0 0 0 0 0 0 0 0 0 1 0 0 0 0 0 0 0 0 0 0 0 0 0 0 0 0 0 0 0 0 0
0 0 0 0 0 0 0 0 0 0 0 0 0 0 0 0 0 0 0 0 0 0 0 0 0 0 0 0 0 0 0 0 0 0 0 0 0 0 0 0 0 0 0
0 0 0 0 0 0 0 0 0 0 0 0 0 0 0 0 0 0 0 0 0 0 0 0 0 0 0 0 0 0 0 0 0 0 0 0 0 0 0 0 0 0 0
0 0 0 0 0 0 0 0 0 0 0 0 0 0 0 0 0 0 0 0 0 0 0 0 0 0 0 0 0 0 0 0 0 0 0 0 0 0 0 0 0 0 0

GEFSMA_con_probscp_126.txt.gz
Probability
39 42 44 39 28 19 14 8 4 3 4 2 1 1 2 3 5 9 16 23 24 23 21 18 14 10 6 6 6 4 2 3 4 2 1 0 0 0 0 0 0 0 0
43 46 47 40 30 24 20 15 10 9 8 5 3 3 4 5 8 13 19 24 25 23 22 23 21 18 13 10 10 7 4 5 6 4 2 1 0 0 0 0 0 0 0
43 46 47 39 30 28 29 26 22 19 15 11 8 6 7 10 14 20 25 27 24 21 22 26 28 26 20 16 14 12 9 9 8 6 3 2 0 0 0 1 1 0 0
36 38 38 34 30 30 31 31 29 26 21 16 13 11 13 18 21 24 26 26 23 20 20 24 27 28 23 18 16 15 12 9 8 6 4 3 1 0 0 1 1 0 0
28 29 30 30 29 29 29 28 29 30 27 22 17 16 19 24 25 23 22 23 21 20 21 22 24 26 23 18 17 16 13 10 9 7 4 2 1 0 0 0 1 1 1
23 23 25 28 28 27 25 24 24 28 29 27 20 17 19 23 25 24 21 21 21 22 22 23 25 24 21 19 18 16 13 12 12 9 4 1 0 0 0 1 2 3 3
18 18 19 23 24 21 19 18 18 21 25 27 24 19 17 19 23 24 23 22 22 22 21 23 26 24 20 18 18 16 14 12 12 11 6 3 2 2 2 3 5 5 5
15 13 13 16 17 15 13 13 14 15 19 25 26 22 16 15 18 20 21 20 21 22 20 22 26 25 22 19 15 14 12 11 12 12 9 7 6 5 5 5 6 6 5
11 11 11 12 12 11 11 12 12 11 14 21 25 22 17 14 15 16 17 18 19 19 18 17 19 23 24 21 15 11 9 9 10 11 10 8 7 6 6 5 5 5 4
7 8 9 10 10 9 10 11 11 10 12 15 19 19 17 15 14 12 11 13 14 14 13 11 12 17 23 22 15 9 8 7 7 7 6 6 7 6 5 4 4 3 2
4 5 5 7 8 9 10 11 12 12 12 12 12 13 13 14 15 11 6 7 9 10 11 11 10 15 21 20 13 8 6 4 3 2 2 3 5 5 4 3 2 1 1
3 3 3 5 7 8 9 10 11 12 11 10 9 9 10 12 13 9 4 4 6 8 9 10 11 14 17 16 12 7 4 2 0 0 0 1 2 3 4 3 2 0 0
1 2 2 4 5 6 7 8 9 10 9 7 7 6 7 9 9 8 5 4 5 6 6 8 10 12 13 14 11 6 2 0 0 0 0 0 1 2 2 2 1 0 0
0 0 1 2 2 3 4 5 6 6 5 4 4 3 3 4 5 6 6 4 4 4 5 6 7 9 10 10 8 3 0 0 0 0 0 0 0 1 1 0 0 0 0
0 0 0 0 0 1 1 1 2 2 2 1 1 1 1 1 2 4 4 3 2 3 5 5 6 7 7 6 4 1 0 0 0 0 0 0 0 0 0 0 0 0 0
0 0 0 0 0 0 0 0 0 0 0 0 0 0 0 0 1 1 1 1 1 3 4 4 5 6 6 4 1 0 0 0 0 0 0 0 0 0 0 0 0 0 0
0 0 0 0 0 0 0 0 0 0 0 0 0 0 0 0 0 0 0 0 1 3 4 5 6 6 5 2 0 0 0 0 0 0 0 0 0 0 0 0 0 0 0
0 0 0 0 0 0 0 0 0 0 0 0 0 0 0 0 0 0 0 0 1 3 4 6 6 5 4 2 1 0 0 0 0 0 0 0 0 0 0 0 0 0 0
0 0 0 0 0 0 0 0 0 0 0 0 0 0 0 0 0 0 0 0 1 2 4 6 6 4 3 2 1 0 0 0 0 0 0 0 0 0 0 0 0 0 0
0 0 0 0 0 0 0 0 0 0 0 0 0 0 0 0 0 0 0 0 0 1 3 6 5 3 1 1 0 0 0 0 0 0 0 0 0 0 0 0 0 0 0
0 0 0 0 0 0 0 0 0 0 0 0 0 0 0 0 0 0 0 0 0 0 2 5 5 2 0 0 0 0 0 0 0 0 0 0 0 0 0 0 0 0 0
0 0 0 0 0 0 0 0 0 0 0 0 0 0 0 0 0 0 0 0 0 0 1 4 3 1 0 0 0 0 0 0 0 0 0 0 0 0 0 0 0 0 0
0 0 0 0 0 0 0 0 0 0 0 0 0 0 0 0 0 0 0 0 0 0 1 2 1 0 0 0 0 0 0 0 0 0 0 0 0 0 0 0 0 0 0
0 0 0 0 0 0 0 0 0 0 0 0 0 0 0 0 0 0 0 0 0 0 0 0 0 0 0 0 0 0 0 0 0 0 0 0 0 0 0 0 0 0 0
0 0 0 0 0 0 0 0 0 0 0 0 0 0 0 0 0 0 0 0 0 0 0 0 0 0 0 0 0 0 0 0 0 0 0 0 0 0 0 0 0 0 0
0 0 0 0 0 0 0 0 0 0 0 0 0 0 0 0 0 0 0 0 0 0 0 0 0 0 0 0 0 0 0 0 0 0 0 0 0 0 0 0 0 0 0

GEFSMA_con_probscp_132.txt.gz
Probability
3 4 6 6 6 6 5 3 1 0 0 0 0 0 0 0 0 0 1 5 10 11 11 10 7 4 3 2 2 1 0 0 0 0 0 0 0 0 1 1 0 0 0
2 3 4 3 3 3 3 3 2 1 1 0 0 1 1 0 0 0 1 4 8 10 11 11 9 6 4 4 4 2 0 0 0 0 1 1 0 1 2 2 1 1 1
3 3 2 1 1 1 1 2 2 2 2 1 0 1 1 0 0 0 2 3 5 7 9 10 8 6 5 5 4 2 1 0 0 0 1 1 0 1 2 2 2 2 2
4 3 1 0 0 0 0 1 2 2 2 1 0 1 1 0 0 0 1 2 3 4 5 6 4 4 4 4 3 3 2 1 0 0 1 1 0 0 1 1 1 1 1
4 3 2 0 0 0 0 0 1 2 1 0 0 0 0 0 0 0 0 1 2 2 2 2 2 2 3 2 2 3 3 2 1 0 1 0 0 0 0 0 0 0 0
4 3 1 0 0 0 0 0 0 1 1 0 0 1 1 1 0 0 0 0 1 1 0 1 1 1 1 1 2 4 4 3 1 1 1 1 1 1 1 0 0 0 0
4 3 2 1 1 0 0 0 0 0 0 0 0 1 2 1 0 0 0 0 0 0 0 0 0 0 0 0 2 5 5 4 3 3 4 3 1 1 1 1 1 0 0
2 3 4 3 3 2 0 0 0 0 0 0 0 1 1 0 0 0 0 1 1 1 0 0 0 0 0 0 1 4 5 5 5 5 6 6 3 1 1 1 1 0 0
1 2 3 4 4 3 1 0 0 0 0 0 0 0 0 0 0 0 0 1 2 1 0 0 0 0 0 0 0 2 3 4 5 6 6 6 5 2 1 1 0 0 0
0 1 2 3 3 2 1 0 0 0 0 0 0 0 0 0 0 0 0 1 2 1 0 0 0 0 0 0 0 1 1 2 3 4 5 6 5 3 2 1 1 1 1
0 0 1 2 1 1 0 0 0 0 0 0 0 0 0 0 0 0 0 0 0 0 0 0 0 0 0 0 0 0 0 0 1 2 4 5 4 3 3 2 1 1 2
0 0 0 0 0 0 0 0 0 0 0 0 0 0 0 0 0 0 0 0 0 0 0 0 0 0 0 0 0 0 0 0 0 1 3 3 2 1 2 2 1 1 2
0 0 0 0 0 0 0 0 0 0 0 0 0 0 0 0 0 0 0 0 0 0 0 0 0 0 0 0 0 0 0 0 0 1 2 2 1 0 1 1 0 0 1
0 0 0 0 0 0 0 0 0 0 0 0 0 0 0 0 0 0 0 0 0 0 0 0 0 0 0 0 0 0 0 0 0 0 1 1 0 0 0 0 0 0 0
0 0 0 0 0 0 0 0 0 0 0 0 0 0 0 0 0 0 0 0 0 0 0 0 0 0 0 0 0 0 0 0 0 0 0 0 0 0 0 0 0 0 0
0 0 0 0 0 0 0 0 0 0 0 0 0 0 0 0 0 0 0 0 0 0 0 0 0 0 0 0 0 0 0 0 0 0 0 0 0 0 0 0 0 0 0
0 0 0 0 0 0 0 0 0 0 0 0 0 0 0 0 0 0 0 0 0 0 0 0 0 0 0 0 0 0 0 0 0 0 0 0 0 0 0 0 0 0 0
0 0 0 0 0 0 0 0 0 0 0 0 0 0 0 0 0 0 0 0 0 0 0 0 0 0 0 0 0 0 0 0 0 0 0 0 0 0 0 0 0 0 0
0 0 0 0 0 0 0 0 0 0 0 0 0 0 0 0 0 0 0 0 0 0 0 0 0 0 0 0 0 0 0 0 0 0 0 0 0 0 0 0 0 0 0
0 0 0 0 0 0 0 0 0 0 0 0 0 0 0 0 0 0 0 0 0 0 0 0 0 0 0 0 0 0 0 0 0 0 0 0 0 0 0 0 0 0 0
0 0 0 0 0 0 0 0 0 0 0 0 0 0 0 0 0 0 0 0 0 0 0 0 0 0 0 0 0 0 0 0 0 0 0 0 0 0 0 0 0 0 0
0 0 0 0 0 0 0 0 0 0 0 0 0 0 0 0 0 0 0 0 0 0 0 0 0 0 0 0 0 0 0 0 0 0 0 0 0 0 0 0 0 0 0
0 0 0 0 0 0 0 0 0 0 0 0 0 0 0 0 0 0 0 0 0 0 0 0 0 0 0 0 0 0 0 0 0 0 0 0 0 0 0 0 0 0 0
0 0 0 0 0 0 0 0 0 0 0 0 0 0 0 0 0 0 0 0 0 0 0 0 0 0 0 0 0 0 0 0 0 0 0 0 0 0 0 0 0 0 0
0 0 0 0 0 0 0 0 0 0 0 0 0 0 0 0 0 0 0 0 0 0 0 0 0 0 0 0 0 0 0 0 0 0 0 0 0 0 0 0 0 0 0
0 0 0 0 0 0 0 0 0 0 0 0 0 0 0 0 0 0 0 0 0 0 0 0 0 0 0 0 0 0 0 0 0 0 0 0 0 0 0 0 0 0 0

GEFSMA_con_probscp_138.txt.gz
Probability
11 9 7 7 9 11 10 7 5 5 6 7 7 5 6 6 4 3 4 7 8 7 6 4 1 0 1 2 3 3 2 2 1 0 0 0 0 0 0 0 0 0 0
7 6 5 5 7 9 9 6 5 5 4 5 6 6 6 6 4 3 4 8 11 10 8 6 3 1 1 1 2 2 1 1 1 0 0 0 0 0 0 0 0 0 0
3 3 2 2 4 5 6 5 5 5 3 3 4 5 6 5 4 4 4 6 9 9 8 7 4 3 2 1 1 1 0 0 0 0 0 0 0 0 0 0 0 0 0
0 0 0 0 1 2 3 3 4 4 3 2 3 3 2 2 3 4 4 3 4 5 5 5 4 3 2 1 0 0 0 0 0 0 0 0 0 0 0 0 0 0 0
0 0 0 0 0 1 1 1 2 2 1 1 2 1 0 1 2 3 3 2 2 3 3 4 3 2 1 1 1 1 1 0 0 0 0 0 0 0 0 0 0 0 0
0 0 1 1 1 1 1 0 0 0 0 0 0 0 0 0 1 1 1 2 3 3 2 2 3 2 1 1 1 1 0 0 0 0 0 0 0 0 0 0 0 0 0
0 0 1 1 1 1 2 1 1 1 0 0 0 0 0 0 0 0 1 2 3 3 3 3 4 3 1 1 1 0 0 0 0 0 0 0 0 0 0 0 0 0 0
0 0 0 0 0 1 2 2 3 2 1 0 0 0 0 0 0 0 1 2 3 3 3 4 4 3 2 2 1 0 0 0 1 1 1 0 0 0 0 0 0 0 0
0 0 0 0 0 0 1 2 3 3 2 0 0 0 0 0 0 0 0 1 2 3 3 3 4 3 3 2 1 0 0 0 1 1 1 0 0 0 0 1 1 0 0
0 0 0 0 0 0 0 1 2 3 2 1 0 0 0 0 0 0 0 0 2 3 3 3 3 3 3 3 1 0 0 0 0 0 1 1 1 0 1 2 2 1 0
0 0 0 0 0 0 0 0 1 3 3 2 0 0 0 0 0 0 0 0 1 2 2 2 3 3 3 3 2 1 0 0 0 0 1 2 1 1 2 3 3 2 1
0 0 0 0 0 0 0 0 1 2 2 1 0 0 0 0 0 0 0 0 0 1 1 1 1 2 2 2 2 1 0 0 0 0 1 1 1 1 2 3 3 2 1
0 0 0 0 0 0 0 0 0 1 1 0 0 0 0 0 0 0 0 0 0 0 0 0 0 1 1 1 1 0 0 0 0 0 0 0 0 0 1 3 3 1 0
0 0 0 0 0 0 0 0 0 0 0 0 0 0 0 0 0 0 0 0 0 0 0 0 0 0 0 0 0 0 0 0 0 0 0 0 0 0 1 2 2 1 0
0 0 0 0 0 0 0 0 0 0 0 0 0 0 0 0 0 0 0 0 0 0 0 0 0 0 0 0 0 0 0 0 0 0 0 0 0 0 0 1 1 0 0
0 0 0 0 0 0 0 0 0 0 0 0 0 0 0 0 0 0 0 0 0 0 0 0 0 0 0 0 0 0 0 0 0 0 0 0 0 0 0 0 0 0 0
0 0 0 0 0 0 0 0 0 0 0 0 0 0 0 0 0 0 0 0 0 0 0 0 0 0 0 0 0 0 0 0 0 0 0 0 0 0 0 0 0 0 0
0 0 0 0 0 0 0 0 0 0 0 0 0 0 0 0 0 0 0 0 0 0 0 0 0 0 0 0 0 0 0 0 0 0 0 0 0 0 0 0 0 0 0
0 0 0 0 0 0 0 0 0 0 0 0 0 0 0 0 0 0 0 0 0 0 0 0 0 0 0 0 0 0 0 0 0 0 0 0 0 0 0 0 0 0 0
0 0 0 0 0 0 0 0 0 0 0 0 0 0 0 0 0 0 0 0 0 0 0 0 0 0 0 0 1 0 0 0 0 0 0 0 0 0 0 0 0 0 0
0 0 0 0 0 0 0 0 0 0 0 0 0 0 0 0 0 0 0 0 0 0 0 0 0 0 0 0 0 0 0 0 0 0 0 0 0 0 0 0 0 0 0
0 0 0 0 0 0 0 0 0 0 0 0 0 0 0 0 0 0 0 0 0 0 0 0 0 0 0 0 0 0 0 0 0 0 0 0 0 0 0 0 0 0 0
0 0 0 0 0 0 0 0 0 0 0 0 0 0 0 0 0 0 0 0 0 0 0 0 0 0 0 0 0 0 0 0 0 0 0 0 0 0 0 0 0 0 0
0 0 0 0 0 0 0 0 0 0 0 0 0 0 0 0 0 0 0 0 0 0 0 0 0 0 0 0 0 0 0 0 0 0 0 0 0 0 0 0 0 0 0
0 0 0 0 0 0 0 0 0 0 0 0 0 0 0 0 0 0 0 0 0 0 0 0 0 0 0 0 0 0 0 0 0 0 0 0 0 0 0 0 0 0 0
0 0 0 0 0 0 0 0 0 0 0 0 0 0 0 0 0 0 0 0 0 0 0 0 0 0 0 0 0 0 0 0 0 0 0 0 0 0 0 0 0 0 0

GEFSMA_con_probscp_144.txt.gz
Probability
12 13 16 17 18 22 25 24 21 18 17 12 8 6 5 5 7 9 12 13 11 11 11 9 9 7 3 1 0 1 0 0 0 0 0 0 0 0 0 0 0 0 0
11 15 18 18 18 21 24 24 24 24 21 17 14 13 11 10 11 12 13 14 13 11 11 12 13 12 7 2 1 2 1 1 0 0 0 0 0 0 0 0 0 0 0
9 13 17 17 16 18 21 25 27 28 26 23 22 21 19 17 17 17 16 16 15 13 13 15 17 15 9 5 4 4 3 2 1 0 0 0 0 0 0 0 0 0 0
6 10 14 16 16 17 19 22 26 29 28 26 25 24 23 21 19 17 15 15 15 15 16 18 17 13 9 7 7 6 3 2 1 0 0 0 0 0 0 0 0 0 0
6 8 12 16 18 18 17 18 23 27 27 23 20 20 20 18 16 14 11 11 13 16 17 19 19 15 11 10 10 8 3 2 2 2 1 0 0 0 0 0 0 0 0
6 8 12 15 16 15 13 13 17 21 22 19 16 14 14 14 14 13 11 11 12 13 15 18 21 20 15 12 11 9 5 3 5 5 3 1 1 0 0 0 0 0 0
8 10 13 15 14 12 10 9 11 14 16 16 15 13 12 11 12 13 14 15 12 10 11 14 18 20 18 14 10 8 7 6 7 7 5 3 2 1 0 0 0 0 0
10 11 12 14 12 10 9 8 8 9 10 12 13 13 11 10 10 10 12 13 11 9 10 12 15 17 17 16 12 8 7 7 7 7 6 3 2 1 1 0 0 0 0
7 8 9 9 8 8 8 7 6 7 9 10 11 11 10 9 7 6 5 5 7 9 11 11 11 12 14 17 15 9 6 5 6 6 5 4 2 2 1 0 0 0 1
4 4 6 5 5 5 5 4 3 5 9 10 9 9 10 9 7 5 2 2 4 8 9 9 9 10 12 17 16 9 4 3 3 4 4 4 2 1 1 0 0 1 2
1 1 3 3 2 2 1 1 1 4 6 7 6 7 9 9 7 5 3 2 4 6 7 8 9 10 12 15 14 7 3 2 1 1 2 3 2 2 2 1 0 1 2
0 0 1 1 1 0 0 0 0 1 2 3 3 4 6 6 5 4 3 3 3 4 5 6 7 8 10 11 8 4 1 1 0 0 0 1 2 3 3 2 1 1 2
0 0 0 0 0 0 0 0 0 0 0 1 1 2 3 3 3 4 3 2 3 3 3 3 3 3 5 6 4 2 1 0 0 0 0 0 1 2 3 3 2 1 2
0 0 0 0 0 0 0 0 0 0 0 0 0 1 2 2 2 3 3 3 3 3 3 2 1 1 2 3 3 2 2 1 0 0 0 0 0 1 2 2 1 0 1
0 0 0 0 0 0 0 0 0 0 0 0 0 1 1 1 1 1 2 3 3 3 2 1 1 0 1 2 2 2 2 1 0 0 0 0 0 0 1 1 0 0 0
0 0 0 0 0 0 0 0 0 0 0 0 0 0 0 0 0 0 1 2 2 1 1 0 0 0 0 0 1 1 1 0 0 0 0 0 0 0 0 0 0 0 0
0 0 0 0 0 0 0 0 0 0 0 0 0 0 0 0 0 0 0 1 1 0 0 0 0 0 0 0 0 1 0 0 0 0 0 0 0 0 0 0 0 0 0
0 0 0 0 0 0 0 0 0 0 0 0 0 0 0 0 0 0 0 0 0 0 0 0 0 0 0 0 0 1 0 0 0 0 0 0 0 0 0 0 0 0 0
0 0 0 0 0 0 0 0 0 0 0 0 0 0 0 0 0 0 0 0 0 0 0 0 0 0 0 0 0 0 0 0 0 0 0 0 0 0 0 0 0 0 0
0 0 0 0 0 0 0 0 0 0 0 0 0 0 0 0 0 0 0 0 0 0 0 0 0 0 0 0 0 0 0 1 1 1 0 0 0 0 0 0 0 0 0
0 0 0 0 0 0 0 0 0 0 0 0 0 0 0 0 0 0 0 0 0 0 0 0 0 0 0 0 0 0 0 1 2 1 1 0 0 0 0 0 0 0 0
0 0 0 0 0 0 0 0 0 0 0 0 0 0 0 0 0 0 0 0 0 0 0 0 0 0 0 0 0 0 0 1 2 2 1 0 0 1 1 0 0 0 0
0 0 0 0 0 0 0 0 0 0 0 0 0 0 0 0 0 0 0 0 0 0 0 0 0 0 0 0 0 0 0 0 1 2 1 0 0 1 1 0 0 0 0
0 0 0 0 0 0 0 0 0 0 0 0 0 0 0 0 0 0 0 0 0 0 0 0 0 0 0 0 0 0 0 0 1 1 1 0 0 1 1 0 0 0 0
0 0 0 0 0 0 0 0 0 0 0 0 0 0 0 0 0 0 0 0 0 0 0 0 0 0 0 0 0 0 0 0 0 0 0 0 0 0 0 0 0 0 0
0 0 0 0 0 0 0 0 0 0 0 0 0 0 0 0 0 0 0 0 0 0 0 0 0 0 0 0 0 0 0 0 0 0 0 0 0 0 0 0 0 0 0

GEFSMA_con_probscp_150.txt.gz
Probability
43 44 47 48 44 40 40 39 36 34 34 29 21 15 15 19 25 29 33 40 44 40 34 30 26 18 13 12 9 4 2 1 1 1 2 3 4 4 3 2 0 0 0
44 44 47 48 44 40 38 37 36 38 39 34 27 21 20 22 27 31 34 39 41 38 35 33 29 21 15 13 11 8 5 3 2 1 2 4 4 3 4 2 1 0 0
39 38 40 43 41 37 35 35 38 42 42 37 32 29 26 24 27 28 29 32 35 36 36 36 33 26 19 15 13 12 10 9 7 4 2 3 4 3 3 2 1 0 0
29 29 30 34 35 33 33 36 39 43 41 36 32 30 27 25 24 22 22 26 30 35 36 36 34 29 23 16 12 12 12 13 10 6 3 2 2 2 1 1 0 0 0
21 21 23 27 28 30 34 34 35 37 36 31 25 22 22 24 23 20 22 25 30 35 35 36 35 29 23 18 14 12 12 11 9 8 5 3 3 4 2 0 0 0 0
19 17 19 22 22 27 31 30 27 27 27 24 16 12 15 20 22 23 24 26 29 32 33 35 34 29 24 22 19 17 14 12 10 10 9 6 6 7 5 2 0 0 0
17 16 17 19 20 23 26 25 21 19 18 18 13 9 10 15 19 21 23 24 23 25 28 29 29 29 27 24 22 20 18 16 15 14 10 8 8 8 6 4 1 0 0
14 14 15 17 19 20 21 21 19 15 12 11 11 8 6 9 12 15 18 18 17 19 22 24 25 26 26 24 20 18 18 18 16 13 10 8 8 7 5 4 2 1 0
12 11 11 12 12 13 14 16 16 13 8 6 6 5 4 4 7 10 12 12 12 15 18 19 19 20 21 22 20 16 15 15 13 11 9 8 7 6 4 3 2 1 0
9 8 7 6 6 7 6 8 10 8 6 4 3 3 4 4 5 6 6 6 7 10 13 14 13 14 17 20 20 16 11 9 7 7 6 6 5 4 3 3 3 1 1
6 5 3 4 5 5 3 3 4 5 4 2 2 3 4 5 5 4 3 3 3 5 7 8 9 10 14 17 15 10 6 4 2 2 2 3 3 3 3 3 3 3 2
6 4 2 3 4 4 3 2 2 2 1 1 1 2 3 5 5 4 3 2 2 2 3 4 5 6 8 10 8 4 2 1 0 0 0 1 1 1 1 2 3 3 3
8 6 3 3 3 3 1 1 1 0 0 0 0 1 2 3 4 5 4 3 2 1 1 1 1 2 4 5 3 1 0 0 0 0 0 0 0 0 0 1 2 2 2
7 5 3 2 2 2 1 0 0 0 0 0 0 0 1 3 4 5 4 3 3 2 1 0 0 1 2 2 2 1 0 0 0 0 0 0 0 0 0 0 1 1 1
2 2 1 1 1 1 0 0 0 0 0 0 0 0 1 2 3 4 4 3 3 2 1 0 0 0 1 1 1 0 0 0 0 0 0 0 0 0 0 0 0 0 0
1 1 1 0 0 0 0 0 0 0 0 0 0 0 0 1 1 1 1 1 2 1 1 1 1 0 0 1 0 0 0 0 0 0 0 0 0 0 0 0 0 0 0
1 1 1 0 0 0 0 0 0 0 0 0 0 0 0 0 0 0 0 0 0 0 1 1 1 0 0 0 0 0 0 0 0 0 0 0 0 0 0 0 0 0 0
1 1 0 0 0 0 0 0 0 0 0 0 0 0 0 0 0 0 0 0 0 0 0 0 0 0 0 0 0 0 0 0 0 0 0 0 0 0 0 0 0 0 0
2 1 0 0 0 0 0 0 0 0 0 0 0 0 0 0 0 0 0 0 0 0 0 0 0 0 0 0 0 0 0 0 0 0 0 0 0 0 0 0 0 0 0
2 1 0 0 0 0 0 0 0 0 0 0 0 0 0 0 0 0 0 0 0 0 0 0 0 0 0 0 0 0 0 0 0 0 0 0 0 0 0 0 0 0 0
1 1 0 0 0 0 0 0 0 0 0 0 0 0 0 0 0 0 0 0 0 0 0 0 0 0 0 0 0 0 0 0 0 0 0 0 0 0 0 0 0 0 0
1 0 0 0 0 0 0 0 0 0 0 0 0 0 0 0 0 0 0 0 0 0 0 0 0 0 0 0 0 0 0 0 0 0 0 0 0 0 0 0 0 0 0
1 0 0 0 0 0 0 0 0 0 0 0 0 0 0 0 0 0 0 0 0 0 0 0 0 0 0 0 0 0 0 0 0 0 0 0 0 0 0 0 0 0 0
0 0 0 0 0 0 0 0 0 0 0 0 0 0 0 0 0 0 0 0 0 0 0 0 0 0 0 0 0 0 0 0 0 0 0 0 0 0 0 0 0 0 0
0 0 0 0 0 0 0 0 0 0 0 0 0 0 0 0 0 0 0 0 0 0 0 0 0 0 0 0 0 0 0 0 0 0 0 0 0 0 0 0 0 0 0
0 0 0 0 0 0 0 0 0 0 0 0 0 0 0 0 0 0 0 0 0 0 0 0 0 0 0 0 0 0 0 0 0 0 0 0 0 0 0 0 0 0 0

GEFSMA_con_probscp_156.txt.gz
Probability
1 2 2 4 6 7 5 3 3 3 3 3 3 2 2 1 0 0 2 8 15 19 22 23 20 14 10 10 10 9 7 5 3 3 3 3 3 1 0 0 1 1 0
3 3 4 5 6 6 3 1 2 3 3 3 2 1 1 0 0 0 1 5 12 16 19 21 20 17 14 14 14 11 9 7 5 4 3 3 3 2 1 0 1 2 1
7 6 5 6 5 4 2 1 1 3 3 3 2 1 0 0 0 0 0 2 5 9 13 17 19 19 19 19 16 12 9 9 8 6 5 4 4 3 1 0 1 2 2
9 7 5 5 5 4 2 2 2 2 2 2 2 1 0 0 0 0 0 0 1 3 7 11 13 14 17 18 15 11 8 7 7 7 7 6 5 3 2 1 0 1 2
8 5 3 4 5 5 3 2 2 1 1 1 1 0 0 0 0 0 0 0 0 0 2 5 6 6 9 13 14 10 7 6 7 7 7 6 5 4 3 2 1 1 2
8 5 2 3 4 4 3 2 1 0 0 0 0 0 0 0 0 0 0 0 0 0 1 2 3 2 4 9 13 10 7 7 9 9 7 6 6 5 5 4 2 1 1
10 8 4 2 2 3 3 3 1 0 0 0 0 0 0 0 0 0 0 0 0 0 0 1 2 3 4 7 10 10 7 9 11 10 8 7 7 7 7 4 2 1 1
9 7 4 1 1 1 2 2 1 0 0 0 0 0 0 0 0 0 0 0 0 0 0 1 2 3 3 4 6 8 8 9 10 9 9 10 9 8 8 5 2 1 1
5 4 1 0 0 0 1 1 1 0 0 0 0 0 0 0 0 0 0 0 0 0 0 0 1 1 1 2 3 4 5 7 8 8 9 11 10 8 6 4 2 1 1
3 2 0 0 0 0 0 0 0 0 0 0 0 0 0 0 0 0 0 0 0 0 0 0 0 0 0 1 1 1 2 4 5 6 7 9 10 8 4 2 1 0 0
2 1 0 0 0 0 0 0 0 0 0 0 0 0 0 0 0 0 0 0 0 0 0 0 0 0 0 0 0 0 1 1 2 2 3 5 7 7 4 1 0 0 0
1 0 0 0 0 0 0 0 0 0 0 0 0 0 0 0 0 0 0 0 0 0 0 0 0 0 0 0 0 0 0 0 0 0 1 2 4 5 3 1 0 0 0
0 0 0 0 0 0 0 0 0 0 0 0 0 0 0 0 0 0 0 0 0 0 0 0 0 0 0 0 0 0 0 0 0 0 0 1 2 3 2 1 0 0 0
0 0 0 0 0 0 0 0 0 0 0 0 0 0 0 0 0 0 0 0 0 0 0 0 0 0 0 0 0 0 0 0 0 0 0 0 1 2 2 1 0 0 0
0 0 0 0 0 0 0 0 0 0 0 0 0 0 0 0 0 0 0 0 0 0 0 0 0 0 0 0 0 0 0 0 0 0 0 0 0 1 1 0 0 0 0
0 0 0 0 0 0 0 0 0 0 0 0 0 0 0 0 0 0 0 0 0 0 0 0 0 0 0 0 0 0 0 0 0 0 0 0 0 0 0 0 0 0 0
0 0 0 0 0 0 0 0 0 0 0 0 0 0 0 0 0 0 0 0 0 0 0 0 0 0 0 0 0 0 0 0 0 0 0 0 0 0 0 0 0 0 0
0 0 0 0 0 0 0 0 0 0 0 0 0 0 0 0 0 0 0 0 0 0 0 0 0 0 0 0 0 0 0 0 0 0 0 0 0 0 0 0 0 0 0
0 0 0 0 0 0 0 0 0 0 0 0 0 0 0 0 0 0 0 0 0 0 0 0 0 0 0 0 0 0 0 0 0 0 0 0 0 0 0 0 0 0 0
0 0 0 0 0 0 0 0 0 0 0 0 0 0 0 0 0 0 0 0 0 0 0 0 0 0 0 0 0 0 0 0 0 0 0 0 0 0 0 0 0 0 0
0 0 0 0 0 0 0 0 0 0 0 0 0 0 0 0 0 0 0 0 0 0 0 0 0 0 0 0 0 0 0 0 0 0 0 0 0 0 0 0 0 0 0
0 0 0 0 0 0 0 0 0 0 0 0 0 0 0 0 0 0 0 0 0 0 0 0 0 0 0 0 0 0 0 0 0 0 0 0 0 0 0 0 0 0 0
0 0 0 0 0 0 0 0 0 0 0 0 0 0 0 0 0 0 0 0 0 0 0 0 0 0 0 0 0 0 0 0 0 0 0 0 0 0 0 0 0 0 0
0 0 0 0 0 0 0 0 0 0 0 0 0 0 0 0 0 0 0 0 0 0 0 0 0 0 0 0 0 0 0 0 0 0 0 0 0 0 0 0 0 0 0
0 0 0 0 0 0 0 0 0 0 0 0 0 0 0 0 0 0 0 0 0 0 0 0 0 0 0 0 0 0 0 0 0 0 0 0 0 0 0 0 0 0 0
0 0 0 0 0 0 0 0 0 0 0 0 0 0 0 0 0 0 0 0 0 0 0 0 0 0 0 0 0 0 0 0 0 0 0 0 0 0 0 0 0 0 0

GEFSMA_con_probscp_162.txt.gz
Probability
8 7 6 5 4 4 4 5 6 6 7 7 9 9 9 7 5 3 2 5 6 5 5 5 5 4 5 6 7 6 4 3 1 0 0 0 0 0 0 0 0 1 0
9 8 6 5 3 3 3 3 4 5 6 7 7 8 8 7 6 4 2 4 5 6 7 8 6 6 7 8 8 8 7 5 2 0 0 1 1 1 0 0 1 1 1
9 7 5 4 3 1 1 1 2 3 3 4 4 4 4 4 5 4 2 2 3 4 7 9 9 9 12 12 10 10 9 7 4 2 1 2 4 3 1 0 1 1 1
8 6 4 3 2 1 1 2 2 1 1 1 1 1 1 1 1 2 1 0 0 1 3 5 7 10 14 14 11 11 10 8 6 5 3 3 4 4 2 0 0 0 0
7 5 4 3 1 0 1 3 2 1 0 0 0 0 0 0 0 0 0 0 0 0 0 1 3 6 10 11 11 10 9 9 8 7 5 4 5 5 3 1 0 0 0
5 4 3 3 1 1 1 1 1 0 0 0 0 0 0 0 0 0 0 0 0 0 0 0 1 3 6 9 10 9 8 9 10 9 8 7 7 7 5 2 1 0 0
3 3 3 3 3 2 1 0 0 0 0 0 0 0 0 0 0 0 0 0 0 0 0 0 1 2 4 7 9 8 8 9 10 11 10 9 9 8 6 4 1 1 0
4 4 3 3 3 2 1 0 0 0 0 0 0 0 0 0 0 0 0 1 0 0 0 0 1 1 2 3 5 6 7 8 10 13 14 13 11 9 7 5 3 2 1
4 4 4 3 3 1 0 0 0 0 0 0 0 0 0 0 0 0 0 0 0 0 0 0 0 0 0 1 1 2 3 5 9 14 17 15 12 10 8 6 5 4 3
3 3 3 3 3 1 0 0 0 0 0 0 0 0 0 0 0 0 0 0 0 0 0 0 0 0 0 0 0 0 0 2 5 10 13 13 12 10 8 7 6 5 5
1 1 2 2 2 1 0 0 0 0 0 0 0 0 0 0 0 0 0 0 0 0 0 0 0 0 0 0 0 0 0 0 1 4 7 9 9 9 7 6 6 6 6
0 1 1 1 1 1 0 0 0 0 0 0 0 0 0 0 0 0 0 0 0 0 0 0 0 0 0 0 0 0 0 0 0 1 2 4 6 6 6 5 5 6 6
1 1 2 1 0 0 0 0 0 0 0 0 0 0 0 0 0 0 0 0 0 0 0 0 0 0 0 0 0 0 0 0 0 0 0 1 2 3 3 3 3 3 3
0 1 1 1 0 0 0 0 0 0 0 0 0 0 0 0 0 0 0 0 0 0 0 0 0 0 0 0 0 0 0 0 0 0 0 0 0 1 1 1 1 2 1
0 0 0 0 0 0 0 0 0 0 0 0 0 0 0 0 0 0 0 0 0 0 0 0 0 0 0 0 0 0 0 0 0 0 0 0 0 0 0 0 1 1 1
0 0 0 0 0 0 0 0 0 0 0 0 0 0 0 0 0 0 0 0 0 0 0 0 0 0 0 0 0 0 0 0 0 0 0 0 0 0 0 0 0 0 0
0 0 0 0 0 0 0 0 0 0 0 0 0 0 0 0 0 0 0 0 0 0 0 0 0 0 0 0 0 0 0 0 0 0 0 0 0 0 0 0 0 0 0
0 0 0 0 0 0 0 0 0 0 0 0 0 0 0 0 0 0 0 0 0 0 0 0 0 0 0 0 0 0 0 0 0 0 0 0 0 0 0 0 0 0 0
0 0 0 0 0 0 0 0 0 0 0 0 0 0 0 0 0 0 0 0 0 0 0 0 0 0 0 0 0 0 0 0 0 0 0 0 0 0 0 0 0 0 0
0 0 0 0 0 0 0 0 0 0 0 0 0 0 0 0 0 0 0 0 0 0 0 0 0 0 0 0 0 0 0 0 0 0 0 0 0 0 0 0 0 0 0
0 0 0 0 0 0 0 0 0 0 0 0 0 0 0 0 0 0 0 0 0 0 0 0 0 0 0 0 0 0 0 0 0 0 0 0 0 0 0 0 0 0 0
0 0 0 0 0 0 0 0 0 0 0 0 0 0 0 0 0 0 0 0 0 0 0 0 0 0 0 0 0 0 0 0 0 0 0 0 0 0 0 0 0 0 0
0 0 0 0 0 0 0 0 0 0 0 0 0 0 0 0 0 0 0 0 0 0 0 0 0 0 0 0 0 0 0 0 0 0 0 0 0 0 0 0 0 0 0
0 0 0 0 0 0 0 0 0 0 0 0 0 0 0 0 0 0 0 0 0 0 0 0 0 0 0 0 0 0 0 0 0 0 0 0 0 0 0 0 0 0 0
0 0 0 0 0 0 0 0 0 0 0 0 0 0 0 0 0 0 0 0 0 0 0 0 0 0 0 0 0 0 0 0 0 0 0 0 0 0 0 0 0 0 0
0 0 0 0 0 0 0 0 0 0 0 0 0 0 0 0 0 0 0 0 0 0 0 0 0 0 0 0 0 0 0 0 0 0 0 0 0 0 0 0 0 0 0

GEFSMA_con_probscp_168.txt.gz
Probability
25 24 24 23 21 22 23 21 18 16 15 14 12 9 7 6 7 10 15 20 20 14 11 11 12 14 16 18 18 13 8 5 5 5 4 3 2 1 0 0 0 0 0
27 26 22 19 18 18 18 16 15 16 16 15 14 12 9 7 7 9 12 15 15 14 13 13 14 15 16 18 19 17 13 9 9 9 8 7 5 3 1 1 0 0 0
28 26 20 16 14 14 14 12 12 15 17 16 15 14 12 8 9 10 9 10 12 12 14 16 16 17 16 15 17 19 17 15 16 18 16 13 10 6 4 2 1 1 1
26 24 21 18 16 15 14 13 12 14 15 14 13 12 11 9 9 8 6 8 12 15 16 16 16 17 15 13 13 16 17 19 22 25 22 18 14 11 7 4 3 2 2
25 24 22 20 19 18 18 17 16 15 14 12 10 8 8 8 7 6 5 9 14 17 17 15 14 14 13 12 13 15 16 19 24 27 25 21 18 16 11 8 6 4 4
26 25 23 21 21 22 22 20 18 16 15 13 10 7 6 5 5 6 8 11 14 15 14 14 15 15 13 11 13 15 14 15 19 23 24 22 22 22 19 15 10 7 6
25 24 22 22 23 23 21 18 16 14 14 13 11 8 5 2 3 5 8 9 8 8 9 11 14 15 13 10 10 12 11 11 14 19 22 23 25 27 26 22 15 9 7
18 17 17 20 23 22 19 15 14 13 12 13 12 9 5 1 1 2 4 4 3 3 5 7 8 9 10 10 9 8 8 9 13 17 18 19 22 24 24 21 15 10 8
12 11 11 15 19 20 18 14 13 12 12 13 14 11 7 3 1 1 1 1 2 3 3 4 3 3 6 10 11 6 4 6 9 12 13 13 14 15 15 14 12 11 11
10 9 9 10 13 16 16 13 11 10 11 11 13 10 6 3 1 1 1 2 3 3 3 3 2 3 6 9 10 6 2 1 3 6 8 8 9 8 8 8 9 11 12
10 7 7 8 9 11 13 11 9 9 9 9 9 7 4 3 2 1 1 2 3 3 3 3 3 4 5 7 7 5 2 0 0 2 4 5 5 5 4 5 7 10 11
7 5 4 5 6 9 10 11 10 8 7 7 7 5 3 3 3 2 1 2 2 2 2 2 3 4 4 4 4 3 2 1 0 0 1 1 2 3 4 5 7 9 10
5 3 2 3 4 7 9 12 11 8 6 6 6 5 3 2 3 3 2 2 2 2 1 1 1 2 2 1 2 2 2 1 0 0 0 0 0 1 3 4 5 7 10
3 3 3 3 3 4 6 9 11 9 6 4 4 4 2 1 1 2 1 1 1 1 0 0 0 1 1 0 1 1 1 0 0 0 0 0 0 0 1 2 2 4 6
3 3 3 3 3 3 4 5 8 8 6 4 4 2 1 0 0 0 0 0 0 0 0 0 0 0 0 0 0 0 0 0 0 0 0 0 0 0 0 0 0 1 2
3 3 3 2 2 2 2 3 4 6 6 5 4 1 0 0 0 0 0 0 0 0 0 0 0 0 0 0 0 0 0 0 0 0 0 0 0 0 0 0 0 0 0
2 2 1 1 1 0 1 2 2 2 3 4 2 0 0 0 0 0 0 0 0 0 0 0 0 0 0 0 0 0 0 0 0 0 0 0 0 0 0 0 0 0 0
1 1 0 0 0 0 0 1 1 1 1 1 0 0 0 0 1 2 1 1 1 0 1 1 0 0 0 0 0 0 0 0 0 0 0 0 0 0 0 0 0 0 0
1 0 0 0 0 0 0 0 0 0 1 0 0 0 0 0 1 2 2 2 2 2 2 2 1 0 0 0 0 0 0 0 0 0 0 0 0 0 0 0 0 0 0
1 0 0 0 0 0 0 0 0 0 0 0 0 0 0 0 1 1 1 2 3 3 3 2 1 0 0 0 0 0 0 0 0 0 0 0 0 0 0 0 0 0 0
1 0 0 0 0 0 0 0 0 0 0 0 0 0 0 0 0 0 0 1 2 3 3 3 1 0 0 0 0 0 0 0 0 0 0 0 0 0 0 0 0 0 0
0 0 0 0 0 0 0 0 0 0 1 1 1 0 0 0 0 0 0 0 0 1 2 2 1 0 0 0 0 0 0 0 0 0 0 0 0 0 0 0 0 0 0
0 0 1 1 0 0 0 0 0 0 1 1 1 0 0 0 0 0 0 0 0 0 1 1 1 0 0 0 0 0 0 0 0 0 0 0 0 0 0 0 0 0 0
1 1 2 2 1 0 0 0 0 0 0 0 0 0 0 0 0 0 0 0 0 0 0 0 0 0 0 0 0 0 0 0 0 0 0 0 0 0 0 0 0 0 0
2 2 2 1 1 0 0 0 0 0 0 0 0 0 0 0 0 0 0 0 0 0 0 0 0 0 0 0 0 0 0 0 0 0 0 0 0 0 0 0 0 0 0
2 2 1 1 0 0 0 0 0 0 0 0 0 0 0 0 0 0 0 0 0 0 0 0 0 0 0 0 0 0 0 0 0 0 0 0 0 0 0 0 0 0 0

GEFSMA_con_probscp_174.txt.gz
Probability
40 39 38 36 30 28 27 24 20 16 12 9 8 7 7 7 8 13 19 24 28 29 27 25 24 23 25 29 31 29 27 25 22 20 19 15 12 11 11 12 11 10 10
41 40 40 37 32 28 26 21 17 15 13 11 11 11 10 9 10 15 19 21 24 26 26 26 27 27 28 29 31 30 28 28 25 22 19 17 15 14 14 15 13 10 9
40 39 39 38 36 32 26 20 16 14 14 14 14 13 14 14 14 15 17 17 19 22 26 29 33 35 33 30 30 31 30 30 28 23 19 18 18 17 17 16 14 11 7
38 37 37 38 37 33 26 19 16 15 15 15 13 12 14 17 16 14 14 15 16 19 24 30 36 36 33 29 27 28 30 31 30 25 20 18 17 17 16 15 14 10 7
39 37 38 36 33 28 22 18 16 16 15 13 10 8 11 15 16 13 12 14 17 18 19 24 29 29 26 24 23 24 26 29 31 29 25 21 20 18 17 16 13 10 9
38 36 35 32 27 21 18 16 15 15 13 10 7 5 7 11 13 12 11 13 15 14 13 16 20 19 17 18 19 19 20 24 28 30 27 26 25 23 21 19 15 12 12
34 32 30 28 24 18 16 14 13 13 12 10 7 5 5 7 8 9 10 10 10 9 9 10 13 13 12 13 14 14 16 18 21 24 23 24 27 26 25 22 18 15 14
29 27 26 26 24 20 15 12 11 10 10 10 10 7 6 5 5 7 9 8 6 5 6 7 7 8 9 10 9 10 12 13 14 16 17 20 23 23 23 23 20 16 15
25 24 23 23 23 20 14 10 9 9 8 8 9 9 8 7 7 8 8 6 4 3 3 4 4 6 9 8 6 7 8 7 8 10 13 16 17 17 18 19 18 16 14
23 22 20 19 18 16 12 9 9 8 7 7 8 8 8 8 8 9 8 5 3 4 4 4 4 5 7 7 6 5 4 3 2 5 9 11 11 11 12 14 15 14 13
23 22 19 17 15 13 10 8 7 8 8 8 8 8 8 8 9 9 7 5 4 5 5 4 3 4 5 6 6 4 2 1 0 2 5 7 6 6 7 9 11 12 12
24 22 19 17 16 14 10 7 6 5 6 7 8 8 7 7 8 9 7 5 4 4 4 3 2 2 3 3 3 3 2 0 0 1 2 4 4 3 4 6 9 10 11
20 19 18 18 16 13 9 6 4 4 4 5 7 8 7 7 8 8 7 5 4 3 2 1 1 1 1 1 1 1 1 0 0 0 1 2 2 2 2 4 6 8 9
16 16 17 16 14 10 6 4 3 3 3 4 5 6 7 6 7 8 8 6 3 2 1 0 0 0 0 0 0 0 0 0 0 0 0 1 1 0 1 1 3 5 6
15 15 14 13 10 6 3 2 1 2 4 4 4 5 6 6 6 7 8 5 2 1 0 0 0 0 0 0 0 0 0 0 0 0 0 0 0 0 0 0 1 2 2
16 14 11 9 7 4 2 1 0 1 3 5 4 4 4 5 6 7 6 3 1 0 0 0 0 0 0 0 0 0 0 0 0 0 0 0 0 0 0 0 0 0 0
15 11 8 7 4 2 1 1 0 0 2 3 3 2 2 3 5 5 4 2 0 0 0 0 0 0 0 0 0 0 0 0 0 0 0 0 0 0 0 0 0 0 0
10 8 5 4 2 1 1 1 0 0 0 1 1 0 1 2 2 2 1 0 0 0 0 0 0 0 0 0 0 0 0 0 0 0 0 0 0 0 0 0 0 0 0
6 5 3 1 0 0 1 1 0 0 0 0 0 0 1 2 1 0 0 0 0 0 0 0 0 0 0 0 0 0 0 0 0 0 0 0 0 0 0 0 0 0 0
5 4 3 1 0 0 0 0 0 0 0 0 0 1 2 2 1 0 0 0 0 0 0 0 0 0 0 0 0 0 0 0 0 0 0 0 0 0 0 0 0 0 0
5 5 4 2 0 0 0 0 0 0 0 0 1 2 3 2 1 0 0 0 0 0 0 0 0 0 0 0 0 0 0 0 0 0 0 0 0 0 0 0 0 0 0
5 5 3 1 0 0 0 0 0 0 0 1 2 3 2 1 0 0 0 0 0 0 0 0 0 0 0 0 0 0 0 0 0 0 0 0 0 0 0 0 0 0 0
6 4 2 1 0 0 0 0 0 0 1 2 3 3 2 0 0 0 0 0 0 0 0 0 0 0 0 0 0 0 0 0 0 0 0 0 0 0 0 0 0 0 0
6 4 2 0 0 0 0 0 0 0 1 3 3 3 2 0 0 0 0 0 0 0 0 0 0 0 0 0 0 0 0 0 0 0 0 0 0 0 0 0 0 0 0
8 5 2 0 0 1 0 0 0 0 1 2 3 2 1 0 0 0 0 0 0 0 0 0 0 0 0 0 0 0 0 0 0 0 0 0 0 0 0 0 0 0 0
9 6 2 0 0 1 0 0 0 0 1 2 2 1 0 0 0 0 0 0 0 0 0 0 0 0 0 0 0 0 0 0 0 0 0 0 0 0 0 0 0 0 0

GEFSMA_con_probscp_180.txt.gz
Probability
10 8 6 4 4 5 6 6 6 6 6 5 4 2 1 0 0 0 1 5 9 11 14 17 16 14 15 18 20 24 26 25 22 21 19 14 8 5 4 5 8 9 8
10 9 7 5 5 6 6 6 6 6 6 5 3 1 0 0 0 0 1 5 8 10 14 18 17 13 12 14 17 20 22 25 27 25 22 18 12 8 7 6 9 12 12
11 9 7 6 6 6 6 5 5 5 5 4 2 0 0 0 0 0 1 3 5 7 11 15 15 11 7 9 12 14 16 21 26 26 23 20 17 13 9 8 11 14 14
9 9 8 6 5 5 5 5 5 4 4 2 1 0 0 0 0 0 0 0 1 3 5 8 9 7 4 6 9 9 11 15 19 21 20 19 20 18 13 10 11 13 13
7 8 7 5 4 3 4 5 4 3 2 1 0 0 0 0 0 0 0 0 0 2 3 4 5 4 4 6 8 8 9 12 14 16 16 16 19 21 18 12 11 12 13
7 7 7 5 4 3 3 4 3 3 3 2 1 0 0 0 0 0 0 0 0 1 2 2 2 2 3 5 6 7 9 11 14 15 15 16 18 20 18 13 11 13 16
7 6 5 5 3 2 2 2 2 2 2 2 1 0 0 0 0 0 0 0 0 0 1 1 1 1 1 2 2 4 8 10 13 15 16 19 22 21 17 13 12 14 16
5 4 4 4 3 3 1 1 1 1 1 1 0 0 0 0 0 0 0 0 0 0 0 0 0 0 0 0 0 1 4 7 9 12 14 18 23 23 18 13 12 13 14
4 3 3 4 4 4 1 0 0 0 0 0 0 0 0 0 0 0 0 0 0 0 0 0 0 0 0 0 0 0 1 3 6 9 12 15 18 20 19 14 10 10 12
6 5 5 5 5 4 1 0 0 0 0 0 0 0 0 0 0 0 0 0 0 0 0 0 0 0 0 0 0 0 0 1 3 7 10 11 13 15 16 12 7 6 7
8 7 5 4 3 2 0 0 0 0 0 0 0 0 0 0 0 0 0 0 0 0 0 0 0 0 0 0 0 0 0 0 1 3 6 7 9 10 10 8 5 3 4
7 6 4 2 1 0 0 0 0 0 0 0 0 0 0 0 0 0 0 0 0 0 0 0 0 0 0 0 0 0 0 0 0 1 2 3 5 7 7 5 4 4 3
6 5 3 1 0 0 0 0 0 0 0 0 0 0 0 0 0 0 0 0 0 0 0 0 0 0 0 0 0 0 0 0 0 0 0 1 3 5 5 4 3 4 4
6 4 3 2 1 0 0 0 0 0 0 0 0 0 0 0 0 0 0 0 0 0 0 0 0 0 0 0 0 0 0 0 0 0 0 0 1 2 3 3 3 3 3
6 4 3 2 1 0 0 0 0 0 0 0 0 0 0 0 0 0 0 0 0 0 0 0 0 0 0 0 0 0 0 0 0 0 0 0 0 0 1 1 1 3 3
4 3 2 2 1 0 0 0 0 0 0 0 0 0 0 0 0 0 0 0 0 0 0 0 0 0 0 0 0 0 0 0 0 0 0 0 0 0 0 0 1 2 2
3 2 1 1 0 0 0 0 0 0 0 0 0 0 0 0 0 0 0 0 0 0 0 0 0 0 0 0 0 0 0 0 0 0 0 0 0 0 0 0 0 1 1
2 1 0 0 0 0 0 0 0 0 0 0 0 0 0 0 0 0 0 0 0 0 0 0 0 0 0 0 0 0 0 0 0 0 0 0 0 0 0 0 0 0 0
2 1 0 0 0 0 0 0 0 0 0 0 0 0 0 0 0 0 0 0 0 0 0 0 0 0 0 0 0 0 0 0 0 0 0 0 0 0 0 0 0 0 0
2 1 0 0 0 0 0 0 0 0 0 0 0 0 0 0 0 0 0 0 0 0 0 0 0 0 0 0 0 0 0 0 0 0 0 0 0 0 0 0 0 0 0
2 1 0 0 0 0 0 0 0 0 0 0 0 0 0 0 0 0 0 0 0 0 0 0 0 0 0 0 0 0 0 0 0 0 0 0 0 0 0 0 0 0 0
2 1 0 0 0 0 0 0 0 0 0 0 0 0 0 0 0 0 0 0 0 0 0 0 0 0 0 0 0 0 0 0 0 0 0 0 0 0 0 0 0 0 0
1 0 0 0 0 0 0 0 0 0 0 0 0 0 0 0 0 0 0 0 0 0 0 0 0 0 0 0 0 0 0 0 0 0 0 0 0 0 0 0 0 0 0
0 0 0 0 0 0 0 0 0 0 0 0 0 0 0 0 0 0 0 0 0 0 0 0 0 0 0 0 0 0 0 0 0 0 0 0 0 0 0 0 0 0 0
0 0 0 0 0 0 0 0 0 0 0 0 0 0 0 0 0 0 0 0 0 0 0 0 0 0 0 0 0 0 0 0 0 0 0 0 0 0 0 0 0 0 0
0 0 0 0 0 0 0 0 0 0 0 0 0 0 0 0 0 0 0 0 0 0 0 0 0 0 0 0 0 0 0 0 0 0 0 0 0 0 0 0 0 0 0

GEFSMA_con_probscp_186.txt.gz
Probability
17 16 14 11 9 8 9 10 10 10 8 7 7 7 6 6 6 4 2 1 3 7 8 7 10 12 10 8 9 13 15 13 11 11 9 9 10 9 7 5 5 5 4
17 15 12 10 9 8 7 7 8 8 7 6 6 6 5 5 5 4 3 1 2 5 8 9 11 12 11 11 11 13 13 12 12 12 10 9 9 10 9 7 6 6 5
15 13 9 7 7 7 6 5 5 5 5 4 4 4 4 3 3 3 3 2 1 2 5 8 10 11 11 12 13 12 10 10 11 11 10 9 9 12 13 11 8 6 6
12 10 7 6 6 7 7 6 5 4 3 3 3 2 1 1 1 1 2 2 1 1 2 4 6 7 8 9 11 10 8 8 9 9 8 8 9 12 14 12 9 7 6
10 6 5 5 6 7 8 7 6 5 4 4 3 2 0 0 0 0 1 1 0 1 2 2 2 3 4 6 8 7 6 8 10 9 6 5 6 9 11 11 9 7 4
5 4 3 4 6 7 7 7 7 6 5 4 2 1 0 0 1 1 0 0 0 1 2 2 1 1 2 4 6 6 5 6 9 8 5 3 4 7 9 10 10 7 4
4 4 4 5 6 6 6 6 6 5 3 2 1 0 0 0 1 1 0 0 0 1 2 1 1 0 1 3 4 4 4 5 6 7 6 5 5 7 8 8 9 7 5
4 4 5 5 6 5 4 4 4 3 1 0 0 0 0 0 1 1 0 0 0 1 1 2 1 1 1 1 1 2 3 4 4 5 6 6 7 7 7 7 8 8 7
4 4 5 5 4 3 3 2 2 1 0 0 0 0 0 0 0 0 0 0 0 0 1 2 2 1 0 1 0 0 1 2 2 3 5 6 7 8 8 7 8 8 7
3 3 4 4 2 1 1 1 1 0 0 0 0 0 0 0 0 0 0 0 0 0 0 1 1 0 1 2 1 0 0 0 1 2 4 6 6 8 8 8 9 9 8
2 3 4 3 2 1 0 0 0 0 0 0 0 0 0 0 0 0 0 0 0 0 0 0 0 1 2 3 2 1 0 0 0 1 2 5 6 7 7 9 11 11 9
3 3 3 3 3 2 1 1 0 0 0 0 0 0 0 0 0 0 0 0 0 0 0 0 0 1 2 3 2 1 0 0 0 0 1 3 5 5 5 8 12 12 10
4 3 3 3 3 3 2 1 0 0 0 0 0 0 0 0 0 0 0 0 0 0 0 0 0 0 1 2 2 1 0 0 0 0 0 1 2 2 3 5 9 10 9
4 3 2 2 3 3 3 1 0 0 0 0 0 0 0 0 0 0 0 0 0 0 0 0 0 0 0 1 1 0 0 0 0 0 0 0 0 0 1 2 5 6 5
3 3 2 2 2 3 2 1 0 0 0 0 0 0 0 0 0 0 0 0 0 0 0 0 0 0 0 0 0 0 0 0 0 0 0 0 0 0 0 0 1 1 1
2 3 3 3 2 2 2 1 0 0 0 0 0 0 0 0 0 0 0 0 0 0 0 0 0 0 0 0 0 0 0 0 0 0 0 0 0 0 0 0 0 0 0
1 2 4 4 3 1 1 0 0 0 0 0 0 0 0 0 0 0 0 0 0 0 0 0 0 0 0 0 0 0 0 0 0 0 0 0 0 0 0 0 0 0 0
1 2 3 4 3 1 0 0 0 0 0 0 0 0 0 0 0 0 0 0 0 0 0 0 0 0 0 0 0 0 0 0 0 0 0 0 0 0 0 0 0 0 0
0 1 3 3 3 1 0 0 0 0 0 0 0 0 0 0 0 0 0 0 0 0 0 0 0 0 0 0 0 0 0 0 0 0 0 0 0 0 0 0 0 0 0
0 1 2 3 2 1 0 0 0 0 0 0 0 0 0 0 0 0 0 0 0 0 0 0 0 0 0 0 0 0 0 0 0 0 0 0 0 0 0 0 0 0 0
0 0 1 2 2 1 0 0 0 0 0 0 0 0 0 0 0 0 0 0 0 0 0 0 0 0 0 0 0 0 0 0 0 0 0 0 0 0 0 0 0 0 0
0 0 0 1 1 0 0 0 0 0 0 0 0 0 0 0 0 0 0 0 0 0 0 0 0 0 0 0 0 0 0 0 0 0 0 0 0 0 0 0 0 0 0
0 0 0 0 0 0 0 0 0 0 0 0 0 0 0 0 0 0 0 0 0 0 0 0 0 0 0 0 0 0 0 0 0 0 0 0 0 0 0 0 0 0 0
0 0 0 0 0 0 0 0 0 0 0 0 0 0 0 0 0 0 0 0 0 0 0 0 0 0 0 0 0 0 0 0 0 0 0 0 0 0 0 0 0 0 0
0 0 0 0 0 0 0 0 0 0 0 0 0 0 0 0 0 0 0 0 0 0 0 0 0 0 0 0 0 0 0 0 0 0 0 0 0 0 0 0 0 0 0
0 0 0 0 0 0 0 0 0 0 0 0 0 0 0 0 0 0 0 0 0 0 0 0 0 0 0 0 0 0 0 0 0 0 0 0 0 0 0 0 0 0 0

GEFSMA_con_probscp_192.txt.gz
Probability
28 25 23 23 22 21 20 19 18 20 22 19 15 13 12 14 16 16 16 16 14 11 9 8 7 7 6 6 6 7 9 10 10 12 12 12 12 11 11 12 12 10 10
29 26 23 23 22 21 19 17 17 20 22 19 16 14 15 15 16 14 13 12 12 11 9 8 7 7 8 8 8 9 10 10 10 11 12 11 10 10 11 13 13 11 9
28 27 25 24 25 24 21 18 18 19 18 16 15 16 17 16 15 13 11 10 9 9 9 9 9 8 9 9 10 11 11 11 12 12 11 10 8 8 9 12 14 12 9
28 27 27 27 27 25 22 19 18 18 17 15 16 17 17 16 15 12 10 9 9 8 9 11 11 10 9 9 9 11 13 14 16 16 14 11 9 9 9 11 13 12 9
27 27 28 28 26 24 21 17 18 19 19 18 18 17 16 16 14 11 10 10 10 10 11 12 11 10 9 8 8 10 12 14 17 18 16 13 11 12 12 11 12 12 10
26 25 25 26 25 23 18 15 16 18 18 17 15 14 13 13 12 10 10 11 12 12 13 12 11 10 9 9 9 9 10 12 15 17 15 13 13 15 14 11 10 12 13
22 22 22 24 25 22 17 14 16 16 14 13 12 9 8 8 9 9 9 10 11 13 12 11 11 12 11 10 10 10 10 12 14 15 14 12 13 15 14 12 12 12 13
18 18 20 21 23 21 17 15 16 14 10 10 9 6 4 5 7 7 8 8 11 13 13 11 10 12 12 11 9 10 11 13 16 16 15 12 11 12 12 14 15 14 12
17 16 17 18 19 18 16 15 14 11 8 7 7 5 4 5 6 7 8 9 11 13 12 10 9 9 11 10 9 8 8 10 14 16 16 13 11 11 12 15 16 14 12
14 13 14 15 15 14 13 12 11 9 8 7 7 7 6 6 5 6 7 8 9 10 10 8 6 7 8 9 9 7 4 4 8 13 14 12 11 10 11 13 13 12 11
10 10 12 13 12 11 10 9 8 9 9 9 9 8 8 6 4 2 3 4 5 6 7 5 3 4 6 7 6 4 1 1 2 6 8 8 9 9 9 9 10 10 10
10 9 11 12 11 10 9 8 7 8 9 9 9 9 9 7 4 1 1 1 2 4 6 6 4 2 3 4 4 3 1 0 0 1 2 3 6 7 6 6 8 9 9
12 11 11 11 11 9 9 8 8 8 9 9 9 9 9 8 6 4 2 1 2 3 6 7 5 2 3 4 4 4 2 1 0 0 0 0 2 3 3 4 6 7 7
13 11 9 10 10 8 8 9 10 9 9 10 9 8 8 8 7 6 5 3 2 2 4 5 4 3 3 3 3 3 2 1 0 0 0 0 0 1 1 1 2 3 3
10 8 6 8 8 8 8 9 10 10 10 10 8 6 6 6 5 5 5 5 3 2 2 3 3 3 2 2 1 1 1 0 0 0 0 0 0 0 0 0 0 0 1
6 6 6 6 7 7 7 7 8 9 9 8 6 4 3 3 2 2 3 3 3 1 1 1 1 1 1 1 1 1 1 1 0 0 0 0 0 0 0 0 0 0 0
4 5 6 6 5 5 5 5 5 6 5 4 4 3 2 1 0 0 1 1 1 1 0 0 0 0 1 2 2 2 1 1 0 0 0 0 0 0 0 0 0 0 0
4 4 4 3 2 2 3 3 3 3 1 1 2 2 2 1 0 0 0 0 0 0 0 0 1 1 2 2 2 2 2 2 2 1 0 0 0 0 0 0 0 0 0
3 3 2 2 1 0 2 3 3 1 0 0 1 1 1 1 0 0 0 1 1 1 1 1 2 3 2 2 3 3 3 4 3 1 0 0 0 0 0 0 0 0 0
3 2 2 1 1 0 2 3 2 1 0 0 1 1 1 1 0 0 1 2 2 2 2 3 3 3 2 2 3 4 5 5 3 2 2 1 1 1 0 0 0 0 0
2 2 2 1 0 0 1 1 1 0 0 1 2 2 2 1 0 0 1 2 2 2 2 2 2 1 1 1 2 3 4 4 4 4 4 3 2 2 1 1 0 0 0
2 3 2 1 0 0 0 0 0 0 0 2 3 3 1 0 0 0 0 1 1 1 1 1 1 0 0 0 0 1 2 3 4 5 5 4 4 4 3 2 0 0 0
2 3 3 1 0 0 0 0 0 0 0 1 2 3 2 1 0 0 0 0 0 0 0 0 0 0 0 0 0 1 2 3 3 4 5 5 5 5 4 2 0 0 0
2 2 2 1 0 0 0 0 0 0 0 0 1 3 4 3 1 0 0 0 0 0 0 0 0 0 0 0 0 1 2 3 3 3 3 4 4 4 3 1 0 0 0
1 1 1 1 0 0 0 0 0 0 0 1 1 2 3 2 1 0 0 0 0 0 0 0 0 0 0 0 0 1 2 2 3 2 2 2 3 3 2 1 1 0 0
0 1 0 0 0 0 0 0 0 0 1 2 2 2 1 1 0 0 0 0 0 0 0 0 0 0 0 0 0 1 1 2 2 1 1 1 2 2 2 2 2 1 0

GEFSMA_con_probscp_198.txt.gz
Probability
29 29 30 30 27 26 25 22 20 16 14 14 14 14 12 9 10 12 15 22 28 29 24 21 22 28 35 40 42 39 32 25 21 20 20 19 16 13 11 9 7 5 2
32 31 32 33 32 31 30 27 23 19 17 16 16 15 14 12 11 11 13 16 22 25 24 22 23 26 31 34 37 36 31 26 23 22 22 22 19 16 14 12 9 7 4
32 33 34 36 35 33 33 31 27 24 22 19 17 16 17 16 13 11 9 9 13 17 20 22 24 25 25 27 28 28 27 25 23 22 23 24 21 19 19 16 12 11 11
31 33 35 35 34 32 31 30 28 27 24 21 18 17 17 18 14 9 7 6 8 10 14 19 23 24 23 23 22 22 24 23 21 21 23 24 22 20 19 17 14 14 14
30 32 32 32 33 33 31 27 26 26 24 21 18 15 16 17 13 8 6 6 7 8 9 13 17 20 21 21 20 21 22 21 21 23 25 25 23 20 17 15 14 13 12
29 30 30 32 34 35 32 29 26 24 22 19 14 12 12 13 11 9 8 8 9 8 6 7 11 14 15 17 18 19 19 18 21 25 26 26 24 20 16 15 14 12 10
28 27 27 29 32 33 32 29 26 22 20 17 13 9 7 7 7 7 7 8 9 8 5 4 7 10 10 11 14 15 14 14 17 21 23 24 24 20 16 14 14 12 11
25 24 23 25 27 29 29 28 25 21 18 17 14 9 4 3 3 3 3 4 5 6 5 4 6 8 9 8 9 11 11 12 14 16 19 21 22 20 16 13 12 11 11
22 22 21 20 22 25 27 27 24 18 15 14 13 9 5 2 1 0 0 1 2 4 4 3 5 8 9 9 8 7 8 10 11 14 17 18 19 19 18 14 11 10 11
21 20 18 17 19 24 27 26 23 18 13 11 11 8 5 3 1 0 0 1 2 3 3 3 4 7 8 8 7 5 4 6 8 12 15 16 16 16 16 14 10 9 10
20 18 15 15 17 22 24 24 22 19 13 10 8 7 6 4 2 1 1 1 3 4 4 3 4 6 7 6 5 3 2 2 5 8 12 13 12 11 12 13 12 11 11
19 17 16 17 18 20 21 21 20 18 14 9 6 6 6 5 3 3 2 1 2 3 4 4 5 6 6 5 4 2 1 0 2 5 8 10 10 9 9 10 11 11 11
20 17 16 18 19 19 19 19 19 17 14 9 5 5 6 5 5 5 3 1 1 2 3 3 4 5 4 4 3 1 0 0 1 2 4 5 6 6 6 6 6 6 7
17 15 12 14 17 15 15 16 16 15 13 7 4 4 5 5 6 7 5 3 1 0 1 2 3 3 3 3 2 0 0 0 0 1 1 1 2 3 3 2 2 2 2
13 11 9 10 11 9 9 11 12 13 9 5 3 3 4 5 7 7 5 4 2 0 0 1 2 2 2 2 1 0 1 0 0 0 0 0 0 1 1 1 0 0 0
12 10 9 8 6 5 6 9 10 9 6 3 2 2 3 3 4 4 3 3 2 0 0 0 1 1 1 1 0 0 0 0 0 0 0 0 0 0 0 0 0 0 0
10 10 8 5 3 3 4 5 6 6 5 3 2 2 2 2 1 1 1 1 1 0 0 0 0 0 0 0 0 0 0 0 0 0 0 0 0 0 0 0 0 0 0
6 6 5 3 1 1 1 2 3 4 5 4 2 1 1 1 0 0 0 1 1 0 0 0 0 0 0 0 0 1 0 0 0 0 0 0 0 0 0 0 0 0 0
3 3 2 1 0 0 0 1 2 3 3 2 1 0 0 0 0 0 0 1 1 0 0 0 0 0 0 0 0 0 0 0 0 0 0 0 0 0 0 0 0 0 0
2 1 1 1 0 0 0 0 1 1 1 0 0 0 0 0 0 0 0 0 0 0 0 0 0 0 0 0 0 0 0 0 0 0 0 0 0 0 0 0 0 0 0
2 1 0 0 0 0 0 0 0 0 0 0 0 0 0 0 0 0 0 0 0 0 0 0 0 0 0 0 0 0 0 0 0 0 0 0 0 0 0 0 0 0 0
1 0 0 0 0 0 0 0 0 0 0 0 0 0 0 0 0 0 0 0 0 0 0 0 0 0 0 0 0 0 0 0 0 0 0 0 0 0 0 0 0 0 0
1 0 0 0 0 0 0 0 0 0 0 0 0 1 1 0 0 0 0 0 0 0 0 0 0 0 0 0 0 0 0 0 0 0 0 0 0 0 1 0 0 0 0
2 1 1 1 2 1 0 0 0 0 0 0 0 1 1 0 0 0 0 0 0 0 0 0 0 0 0 0 0 0 0 0 0 0 0 0 0 0 0 0 0 0 0
3 2 2 3 4 3 1 0 0 0 0 0 0 1 1 0 0 0 0 0 0 0 0 0 0 0 0 0 0 0 0 0 0 0 0 0 0 0 0 0 0 0 0
3 3 3 5 7 5 1 0 0 0 0 0 0 0 0 0 0 0 0 0 0 0 0 0 0 0 0 0 0 0 0 0 0 0 0 0 0 0 0 0 0 0 0

GEFSMA_con_probscp_204.txt.gz
Probability
9 8 7 7 7 8 8 8 7 7 7 7 6 6 6 7 8 9 8 11 17 19 18 19 19 19 22 25 28 34 37 33 30 29 27 25 24 20 16 13 14 15 14
8 7 6 6 7 9 9 8 7 7 6 5 5 5 5 5 6 6 6 8 14 17 18 19 19 20 22 25 28 31 33 33 32 31 27 24 24 23 19 16 15 15 15
9 7 6 6 8 9 9 8 6 4 3 3 4 5 4 3 2 2 2 3 7 11 14 16 17 18 20 23 25 26 28 29 30 30 26 22 22 23 22 20 19 17 15
12 9 7 7 9 10 9 7 4 2 2 2 3 3 3 1 0 0 0 0 1 4 7 10 13 15 17 19 19 20 22 22 24 25 24 21 18 18 20 21 20 17 16
15 12 9 8 9 11 11 9 5 2 2 2 2 1 1 1 0 0 0 0 0 1 2 5 8 12 14 13 13 14 14 15 18 20 21 19 16 14 16 19 19 17 15
15 13 11 10 10 11 12 11 6 3 1 1 1 0 0 1 0 0 0 0 0 0 1 2 4 7 9 10 10 10 9 9 12 15 18 19 18 14 13 14 17 16 14
14 13 11 10 10 12 13 10 6 3 2 1 0 0 0 0 0 0 0 0 0 0 0 1 1 2 4 6 7 7 6 5 6 9 12 17 20 17 11 11 15 16 15
13 13 10 8 9 12 12 8 5 3 2 2 1 0 0 0 0 0 0 0 0 0 0 0 0 0 1 1 2 3 3 2 2 4 8 15 21 20 14 12 14 15 16
12 12 10 8 8 9 8 6 5 3 3 2 1 0 0 0 0 0 0 0 0 0 0 0 0 0 0 0 0 1 1 0 0 2 6 13 19 20 17 16 16 15 15
9 10 10 8 7 6 6 5 4 4 3 2 1 0 0 0 0 0 0 0 0 0 0 0 0 0 0 0 0 0 0 0 0 1 5 10 15 18 17 16 17 16 14
8 9 9 8 7 6 6 6 4 4 4 2 0 0 0 0 0 0 0 0 0 0 0 0 0 0 0 0 0 0 0 0 0 1 3 7 12 15 15 15 15 15 15
7 8 8 7 7 6 6 6 4 4 4 3 1 0 0 0 0 0 0 0 0 0 0 0 0 0 0 0 0 0 0 0 0 0 1 5 9 11 12 11 10 11 14
6 6 6 6 6 6 6 5 4 3 4 3 2 1 0 0 0 0 0 0 0 0 0 0 0 0 0 0 0 0 0 0 0 0 0 2 5 7 8 8 6 7 9
5 5 4 4 4 4 4 4 3 3 3 3 2 1 0 0 0 0 0 0 0 0 0 0 0 0 0 0 0 0 0 0 0 0 0 1 3 5 6 5 4 4 4
4 4 3 3 3 3 3 3 3 3 3 3 3 1 0 0 0 0 0 0 0 0 0 0 0 0 0 0 0 0 0 0 0 0 0 0 1 3 3 3 2 1 1
3 3 3 3 2 1 2 3 3 3 3 2 2 1 0 0 0 0 0 0 0 0 0 0 0 0 0 0 0 0 0 0 0 0 0 0 0 1 1 1 0 0 0
3 3 3 3 1 0 0 1 2 2 1 1 1 1 0 0 0 0 0 0 0 0 0 0 0 0 0 0 0 0 0 0 0 0 0 0 0 0 0 0 0 0 0
3 3 3 2 1 0 0 0 1 1 0 0 0 0 0 0 0 0 0 0 0 0 0 0 0 0 0 0 0 0 0 0 0 0 0 0 0 0 0 0 0 0 0
3 3 3 2 1 0 0 0 0 0 0 0 0 0 0 0 0 0 0 0 0 0 0 0 0 0 0 0 0 0 0 0 0 0 0 0 0 0 0 0 0 0 0
3 3 3 3 1 1 0 0 0 0 0 0 0 0 0 0 0 0 0 0 0 0 0 0 0 0 0 0 0 0 0 0 0 0 0 0 0 0 0 0 0 0 0
3 3 3 3 3 2 1 0 0 0 0 0 0 0 0 0 0 0 0 0 0 0 0 0 0 0 0 0 0 0 0 0 0 0 0 0 0 0 0 0 0 0 0
2 2 2 2 2 2 1 0 0 0 0 0 0 0 0 0 0 0 0 0 0 0 0 0 0 0 0 0 0 0 0 0 0 0 0 0 0 0 0 0 0 0 0
1 1 1 1 1 1 0 0 0 0 0 0 0 0 0 0 0 0 0 0 0 0 0 0 0 0 0 0 0 0 0 0 0 0 0 0 0 0 0 0 0 0 0
0 0 0 0 0 0 0 0 0 0 0 0 0 0 0 0 0 0 0 0 0 0 0 0 0 0 0 0 0 0 0 0 0 0 0 0 0 0 0 0 0 0 0
0 0 0 0 0 0 0 0 0 0 0 0 0 0 0 0 0 0 0 0 0 0 0 0 0 0 0 0 0 0 0 0 0 0 0 0 0 0 0 0 0 0 0
0 0 0 0 0 0 0 0 0 0 0 0 0 0 0 0 0 0 0 0 0 0 0 0 0 0 0 0 0 0 0 0 0 0 0 0 0 0 0 0 0 0 0

GEFSMA_con_probscp_210.txt.gz
Probability
10 10 10 10 9 7 6 5 5 6 6 7 7 7 6 7 9 9 8 9 10 14 17 17 14 14 17 20 21 20 18 19 19 17 16 16 16 20 21 21 20 17 16
8 9 9 9 8 7 6 5 5 4 5 5 6 6 6 6 6 6 5 6 9 13 18 19 17 17 17 19 20 20 19 19 19 18 17 17 17 19 21 22 20 17 16
6 7 8 8 7 6 5 5 5 4 4 5 5 6 6 4 3 3 2 3 5 10 15 20 21 21 19 17 17 17 16 16 16 17 17 17 16 18 19 20 19 17 15
6 7 8 8 7 7 6 6 6 5 6 6 6 6 6 4 2 1 0 1 3 5 9 15 20 20 18 16 14 12 11 10 11 14 15 14 14 15 17 19 19 17 15
6 6 7 8 9 9 7 7 7 7 7 7 6 6 6 4 1 0 0 1 3 3 5 8 12 14 14 13 12 10 8 7 9 12 13 13 14 14 16 19 20 17 15
6 6 7 9 10 10 9 8 8 7 7 6 5 4 3 2 0 0 1 2 3 3 3 4 5 7 9 10 10 10 8 8 9 11 12 14 16 16 16 19 21 18 16
6 6 8 9 10 10 10 9 9 8 7 6 4 3 1 0 0 0 1 2 2 2 2 2 2 3 5 6 7 8 8 8 8 7 8 12 15 16 16 18 19 17 16
7 7 7 8 9 10 10 9 9 8 7 6 5 3 2 1 0 0 1 1 1 1 1 1 0 1 3 4 4 5 6 7 6 5 4 7 11 13 14 15 15 15 15
7 7 6 7 8 9 9 8 7 7 7 5 4 4 2 1 0 0 0 0 0 0 0 0 0 0 2 3 3 3 3 3 4 2 1 3 7 9 11 12 13 12 12
6 6 5 5 7 8 8 7 6 7 7 5 4 3 1 0 0 0 0 0 0 0 0 0 0 1 2 2 2 2 2 1 1 1 0 1 3 5 6 8 11 12 11
4 4 3 3 4 5 5 5 5 6 6 5 3 2 0 0 0 0 0 0 0 0 0 0 0 1 1 1 1 1 1 0 0 0 0 0 1 1 2 4 7 10 10
3 3 3 2 3 4 3 2 3 4 4 4 3 2 1 0 0 0 0 0 0 0 0 0 0 0 0 0 0 0 0 0 0 0 0 0 0 0 0 1 5 8 8
1 2 3 3 4 3 2 1 1 2 3 3 3 3 1 0 0 0 0 0 0 0 0 0 0 0 0 0 0 0 0 0 0 0 0 0 0 0 0 1 3 5 6
1 2 3 3 4 3 1 1 0 1 2 3 3 3 2 1 0 0 0 0 0 0 0 0 0 0 0 0 0 0 0 0 0 0 0 0 0 0 0 0 1 2 3
1 2 3 3 3 3 2 2 1 0 1 1 3 3 2 1 0 0 0 0 0 0 0 0 0 0 0 0 0 0 0 0 0 0 0 0 0 0 0 0 0 0 1
1 2 3 3 3 3 3 3 2 1 0 1 2 2 1 0 0 0 0 0 0 0 0 0 0 0 0 0 0 0 0 0 0 0 0 0 0 0 0 0 0 0 0
1 2 3 3 3 3 3 3 2 1 0 0 1 1 1 0 0 0 0 0 0 0 0 0 0 0 0 0 0 0 0 0 0 0 0 0 0 0 0 0 0 0 0
2 3 3 3 3 3 3 3 2 0 0 0 0 0 0 0 0 0 0 0 0 0 0 0 0 0 0 0 0 0 0 0 0 0 0 0 0 0 0 0 0 0 0
2 3 3 3 3 3 3 3 2 1 0 0 0 0 0 0 0 0 0 0 0 0 0 0 0 0 0 0 0 0 0 0 0 0 0 0 0 0 0 0 0 0 0
1 2 3 3 3 3 3 3 3 2 1 0 0 0 0 0 0 0 0 0 0 0 0 0 0 0 0 0 0 0 0 0 0 0 0 0 0 0 0 0 0 0 0
1 2 3 3 3 3 3 3 3 2 1 0 0 0 0 0 0 0 0 0 0 0 0 0 0 0 0 0 0 0 0 0 0 0 0 0 0 0 0 0 0 0 0
2 2 3 3 3 3 1 1 2 2 1 0 0 0 0 0 0 0 0 0 0 0 0 0 0 0 0 0 0 0 0 0 0 0 0 0 0 0 0 0 0 0 0
1 2 3 3 3 2 1 0 1 1 0 0 0 0 0 0 0 0 0 0 0 0 0 0 0 0 0 0 0 0 0 0 0 0 0 0 0 0 0 0 0 0 0
1 2 3 3 3 1 0 0 0 0 0 0 0 0 0 0 0 0 0 0 0 0 0 0 0 0 0 0 0 0 0 0 0 0 0 0 0 0 0 0 0 0 0
1 2 2 2 2 1 0 0 0 0 0 0 0 0 0 0 0 0 0 0 0 0 0 0 0 0 0 0 0 0 0 0 0 0 0 0 0 0 0 0 0 0 0
0 1 1 1 1 0 0 0 0 0 0 0 0 0 0 0 0 0 0 0 0 0 0 0 0 0 0 0 0 0 0 0 0 0 0 0 0 0 0 0 0 0 0

GEFSMA_con_probscp_216.txt.gz
Probability
20 19 20 18 14 14 16 14 10 9 10 9 7 5 4 4 6 9 12 15 12 8 5 4 4 6 9 11 12 12 11 12 12 12 13 11 12 14 16 17 18 18 19
22 21 21 19 14 14 15 14 11 10 8 7 6 4 4 4 5 6 9 11 11 8 7 7 7 7 9 10 11 12 14 14 13 13 13 12 13 16 18 18 18 17 17
23 21 20 18 15 13 15 16 14 11 9 6 5 4 5 7 7 6 8 10 9 7 7 8 8 8 7 7 9 11 14 14 14 13 13 13 15 16 18 18 17 16 17
20 19 18 16 14 13 15 17 16 15 12 10 9 8 10 12 12 11 11 11 9 8 8 8 9 8 6 5 7 9 12 13 14 14 13 13 14 15 16 16 15 15 16
16 16 15 15 14 13 15 17 18 18 17 15 14 15 15 15 16 15 14 12 11 10 9 9 9 8 6 5 7 9 11 13 16 18 16 13 13 13 12 13 14 14 13
13 13 13 14 13 13 15 17 18 18 18 18 17 16 16 15 16 16 15 15 14 12 10 10 10 8 6 6 8 10 11 14 19 22 20 17 17 15 11 11 13 13 12
10 10 12 13 12 12 15 17 17 17 18 19 19 17 15 13 13 13 14 14 15 14 11 10 10 9 7 6 7 9 10 14 19 23 24 23 22 19 14 10 9 10 12
10 10 11 11 10 11 13 15 16 16 17 20 21 19 14 11 10 9 10 12 15 16 13 10 9 9 10 9 7 7 8 10 15 21 25 26 24 19 15 11 7 7 7
9 9 9 10 10 10 11 13 14 14 16 20 22 20 15 12 11 8 8 10 13 14 13 10 9 9 10 10 8 5 5 5 9 16 22 24 22 16 13 10 8 6 5
8 8 9 11 11 10 11 12 13 13 16 19 21 20 17 15 13 10 8 8 10 11 11 9 8 8 8 9 8 6 2 2 5 10 16 18 17 13 9 7 7 7 7
8 9 11 12 12 11 11 12 13 14 15 17 18 19 17 16 15 12 9 8 8 9 9 8 7 6 6 8 8 5 1 0 2 5 9 10 10 8 6 5 5 5 6
9 9 11 11 11 10 11 11 11 12 14 15 16 16 15 14 15 15 11 8 7 7 7 7 6 4 4 6 6 4 1 0 0 2 4 4 3 3 3 3 2 2 2
7 8 8 8 8 8 9 10 10 11 13 13 14 15 14 14 15 15 12 9 6 6 6 5 4 2 1 3 3 2 0 0 0 1 2 2 1 1 1 1 1 0 0
5 5 5 4 5 6 8 9 10 11 13 14 14 15 14 14 14 15 12 9 6 5 5 3 2 1 1 1 2 1 0 0 0 0 1 1 0 0 0 0 0 0 0
4 3 3 3 3 4 6 7 8 10 11 13 14 14 13 12 12 13 12 8 6 5 4 2 1 2 2 1 1 0 0 0 0 0 0 0 0 0 0 0 0 0 0
3 3 2 3 3 4 5 6 7 7 8 9 11 11 10 9 9 10 8 5 4 3 3 2 1 2 3 2 1 1 0 1 1 0 0 0 0 0 0 0 0 0 0
2 2 3 3 3 3 4 5 6 6 6 6 6 7 7 7 7 6 3 2 2 2 2 2 2 4 4 4 3 2 1 2 2 1 0 0 0 0 0 0 0 0 0
1 2 3 3 3 3 3 4 4 4 4 4 4 5 5 6 6 5 3 2 3 3 2 3 5 4 3 3 3 2 2 2 2 1 0 0 0 0 0 0 0 0 0
1 2 3 3 3 3 3 3 3 3 3 3 3 4 5 6 7 7 6 5 4 3 3 4 5 3 1 1 1 1 2 2 1 0 0 0 0 0 0 0 0 0 0
1 2 3 3 3 3 3 3 3 3 3 3 3 3 5 7 9 9 9 6 4 3 3 3 3 1 0 0 0 1 2 3 2 1 0 0 0 0 0 0 0 0 0
2 3 3 3 3 3 2 3 3 3 3 3 3 4 5 6 7 7 7 5 3 2 1 1 1 0 0 0 0 0 1 2 2 2 1 1 1 1 1 1 0 0 0
3 3 3 4 3 2 1 2 3 3 3 3 3 4 4 4 3 3 3 2 1 1 0 0 0 0 1 0 0 0 0 1 1 2 2 2 3 4 4 2 0 0 0
3 3 4 4 4 3 1 0 2 3 3 3 4 4 4 2 1 1 0 0 0 0 0 0 0 0 0 0 0 0 0 0 0 1 1 2 4 5 4 2 0 0 0
3 3 3 4 5 4 1 0 1 2 3 3 4 4 4 2 1 0 0 0 0 0 0 0 0 0 0 0 0 0 0 0 0 0 1 2 3 4 3 1 0 0 0
2 2 2 3 4 3 1 0 1 2 3 3 3 3 3 2 1 0 0 0 0 0 0 0 0 0 0 0 0 0 0 0 0 0 1 1 1 2 2 2 1 0 0
2 1 1 2 3 1 0 0 1 2 3 3 3 2 1 1 0 0 0 0 0 0 0 0 0 0 0 0 0 0 0 0 0 0 0 0 1 2 2 3 3 1 0

GEFSMA_con_probscp_222.txt.gz
Probability
21 17 17 18 15 13 12 13 14 15 16 14 12 11 12 12 11 10 12 17 19 18 14 12 9 8 9 15 21 25 27 27 26 23 19 15 14 15 13 11 11 12 14
21 20 20 19 16 13 13 12 12 13 16 15 14 12 12 11 10 10 10 13 16 15 12 10 9 9 10 14 18 22 24 26 25 23 20 16 14 14 15 13 12 13 13
23 22 21 20 16 14 13 12 11 12 14 15 14 13 12 12 11 10 9 11 13 12 9 8 7 10 13 14 15 17 20 21 21 21 20 18 17 17 19 19 17 16 15
24 23 22 20 17 14 13 12 11 12 13 13 13 11 11 13 14 12 10 11 12 12 10 7 6 10 14 16 14 13 15 17 18 19 21 22 21 21 22 22 19 16 14
24 24 22 19 17 13 11 11 12 12 13 12 10 9 11 14 15 13 10 11 13 13 11 9 8 10 13 16 16 14 14 16 17 19 22 24 23 22 21 20 18 13 10
22 21 20 17 14 11 9 8 10 13 13 12 10 9 11 14 14 13 11 11 12 12 12 12 11 10 11 14 16 15 14 15 16 18 21 23 23 20 18 16 14 11 8
20 18 17 15 13 11 9 7 9 11 12 12 12 11 11 12 11 11 12 12 11 11 12 13 12 11 10 11 13 14 15 16 17 19 20 22 22 19 15 14 12 10 8
20 19 17 16 14 12 10 9 9 10 10 11 12 11 9 9 9 9 11 12 11 11 11 12 12 12 11 11 11 13 15 16 18 19 19 20 20 18 15 13 12 9 7
20 19 18 16 14 12 11 10 10 9 8 9 10 10 8 7 8 8 9 10 10 10 9 9 11 13 13 12 10 10 9 10 14 18 19 19 19 19 17 14 11 9 7
16 16 15 14 13 12 11 10 9 8 8 7 8 8 7 6 6 6 7 8 9 8 8 9 11 13 13 11 9 7 4 5 9 13 17 18 19 20 19 16 12 8 6
9 9 11 12 13 12 11 10 9 8 8 7 7 7 7 6 5 5 5 7 8 8 9 10 11 11 11 8 7 5 3 2 5 8 12 14 16 17 18 16 13 10 8
5 6 8 11 13 11 9 8 9 9 9 9 8 8 7 7 6 6 5 5 7 9 11 12 12 10 8 7 6 4 2 1 2 4 6 8 10 11 13 13 13 12 11
5 6 8 10 12 10 8 7 9 10 11 10 9 8 9 8 6 6 5 4 5 8 11 12 11 9 7 6 5 3 2 1 0 1 2 3 5 6 7 9 10 9 7
6 7 8 9 10 9 8 8 9 10 10 9 8 9 10 9 6 4 3 3 4 5 7 9 9 8 7 6 4 3 3 2 1 0 0 1 2 3 4 5 5 3 2
7 7 6 7 9 9 9 10 9 8 7 8 8 9 9 8 6 3 2 2 3 3 3 4 5 6 6 5 4 4 4 3 1 0 0 0 1 1 1 2 2 1 0
6 5 4 5 6 7 7 8 7 6 6 7 8 7 7 6 6 4 2 2 2 1 0 1 3 5 5 5 3 3 3 2 1 0 0 0 0 0 0 1 1 0 0
4 4 4 4 4 3 3 4 4 4 5 6 6 5 5 5 6 6 5 4 3 1 0 0 2 3 5 5 2 1 2 1 0 0 0 0 0 0 0 0 0 0 0
2 2 2 2 1 0 1 2 2 3 4 4 4 4 3 5 7 7 6 5 4 2 1 0 1 2 4 4 3 1 0 0 0 0 0 0 0 0 0 0 0 0 0
0 1 1 1 0 0 0 1 2 3 3 3 4 4 3 5 7 7 5 4 4 3 2 1 0 1 2 3 2 1 0 0 0 0 0 0 0 0 0 0 0 0 0
0 0 0 0 0 0 0 1 3 3 3 3 4 4 4 4 6 6 4 3 3 3 3 2 1 0 1 1 1 1 0 0 0 0 0 0 0 0 0 0 0 0 0
1 0 0 0 0 0 0 2 3 3 3 3 3 4 4 4 4 4 3 3 3 3 3 2 1 0 0 0 0 1 0 0 0 0 0 0 0 0 0 0 0 0 0
3 2 1 1 0 0 0 1 2 3 3 3 2 3 4 3 3 2 2 2 2 2 2 2 1 0 0 0 0 0 0 0 0 0 0 0 0 0 0 0 0 0 0
4 3 2 1 0 0 0 0 1 3 3 3 3 3 4 4 3 3 2 2 1 1 1 1 0 0 0 1 1 0 0 0 0 0 0 0 0 0 0 0 0 0 0
4 2 1 1 0 0 0 0 1 2 3 3 3 3 3 4 3 3 3 2 1 1 0 0 0 0 0 0 1 1 0 0 0 0 0 0 0 0 0 0 0 0 0
4 2 0 0 1 1 0 0 0 1 2 2 1 1 2 2 1 1 1 1 1 1 1 0 0 0 0 0 0 0 0 0 0 0 0 0 0 0 0 0 0 0 0
6 4 1 1 2 2 1 0 0 0 1 1 0 0 0 1 0 0 0 0 1 1 1 1 0 0 0 0 0 0 0 0 0 0 0 0 0 0 0 0 0 0 0

GEFSMA_con_probscp_228.txt.gz
Probability
6 7 7 7 6 6 6 6 6 5 4 3 2 1 1 4 6 6 7 10 16 18 15 12 10 11 13 12 9 8 9 12 14 14 11 9 10 12 15 17 17 16 15
6 7 7 6 6 6 6 7 7 5 4 3 3 1 1 1 2 3 4 7 13 17 15 11 9 10 12 12 11 10 9 11 14 15 14 12 12 13 14 15 16 16 16
7 7 6 5 5 6 6 7 7 6 4 3 3 2 1 0 0 1 1 4 8 13 13 11 9 10 10 12 14 13 10 11 12 15 16 15 14 14 13 13 14 16 16
9 7 6 4 4 5 6 6 6 5 3 2 2 2 1 0 0 0 0 2 5 8 10 11 12 11 9 10 14 15 13 12 12 14 16 17 16 15 12 10 10 13 14
10 8 6 5 4 4 4 3 3 2 1 1 1 1 1 0 0 0 0 1 3 5 6 8 11 11 10 10 13 16 15 14 14 14 15 16 16 15 12 7 6 8 11
9 8 7 6 5 4 3 1 1 0 0 0 0 0 0 0 0 0 0 0 1 1 2 4 7 9 10 12 14 15 15 17 17 15 14 14 14 14 11 6 4 6 7
7 7 7 5 4 3 3 1 1 0 0 0 0 0 0 0 0 0 0 0 0 0 1 2 4 6 9 12 13 13 13 15 16 13 12 12 13 13 12 8 5 5 4
5 6 6 5 3 3 3 3 2 1 1 1 0 0 0 0 0 0 0 0 0 0 1 2 3 4 7 9 10 10 10 11 11 10 11 13 13 12 10 8 6 5 4
4 4 5 5 4 3 3 3 4 4 4 2 1 0 0 0 0 0 0 0 0 0 1 2 3 4 5 6 7 7 7 6 6 7 9 11 11 11 9 8 8 7 4
2 3 4 4 3 3 2 2 4 5 5 3 1 0 0 0 0 0 0 0 1 1 0 1 2 3 5 5 5 4 4 4 4 5 7 9 10 11 11 11 11 9 6
1 2 3 3 3 2 1 1 2 3 4 3 1 0 0 0 0 0 0 0 1 2 1 1 2 3 4 4 4 2 1 2 2 3 5 7 9 11 12 12 13 13 12
0 1 2 3 3 3 1 0 0 1 1 1 1 0 0 0 0 0 0 0 1 2 2 2 2 2 2 3 3 2 1 1 1 1 3 5 7 9 11 11 13 16 17
0 1 2 3 3 3 2 1 1 1 1 1 1 0 0 0 0 0 0 0 0 1 1 1 1 1 1 1 1 2 3 2 1 0 1 1 3 6 8 9 11 13 14
0 0 1 3 3 3 2 1 1 2 2 3 2 1 0 0 0 0 0 0 0 0 0 0 0 0 0 0 0 2 3 2 1 0 0 0 0 2 4 6 7 8 8
0 0 1 2 3 3 1 0 0 1 2 2 2 2 1 0 0 0 0 0 0 0 0 0 0 0 0 0 0 1 1 1 1 0 0 0 0 0 2 3 4 4 4
0 0 0 1 2 2 1 0 0 1 1 1 1 2 2 1 1 0 0 0 0 0 0 0 0 0 0 0 0 0 0 0 0 0 0 0 0 0 0 1 2 2 2
0 0 0 0 1 1 0 0 0 0 0 0 0 1 1 2 2 1 0 0 0 0 0 0 0 0 0 0 0 0 0 0 0 0 0 0 0 0 0 0 0 1 1
0 0 0 0 0 0 0 0 0 0 0 0 0 0 0 1 2 1 0 0 0 0 0 0 0 0 0 0 0 0 0 0 0 0 0 0 0 0 0 0 0 0 0
0 0 0 0 0 0 0 0 0 1 0 0 0 0 1 2 1 0 0 0 0 0 0 0 0 0 0 0 0 0 0 0 0 0 0 0 0 0 0 0 0 0 0
0 0 0 0 0 0 0 0 0 0 0 0 0 0 2 2 1 0 0 0 0 0 0 0 0 0 0 0 0 0 0 0 0 0 0 0 0 0 0 0 0 0 0
0 0 0 0 0 0 0 0 0 0 0 0 0 0 1 2 1 1 1 0 0 1 1 1 0 0 0 0 0 0 0 0 0 0 0 0 0 0 0 0 0 0 0
0 0 0 0 0 0 0 0 0 0 0 0 0 0 0 1 1 0 0 0 0 1 2 2 1 1 0 0 0 0 0 0 0 0 0 0 0 0 0 0 0 0 0
0 0 0 0 0 0 0 0 0 0 0 0 0 0 0 0 0 0 0 0 0 1 1 2 2 2 1 0 0 0 0 0 0 0 0 0 0 0 0 0 0 0 0
0 0 0 0 0 0 0 0 0 0 0 0 0 0 0 0 0 0 0 0 0 0 0 1 2 2 1 0 0 0 0 0 0 0 0 0 0 0 0 0 0 0 0
1 0 0 0 0 0 0 0 0 0 0 0 0 0 0 0 0 0 0 0 0 0 0 0 1 1 0 0 0 0 0 0 0 0 0 0 0 0 0 0 0 0 0
1 1 0 0 0 0 0 0 0 0 0 0 0 0 0 0 0 0 0 0 0 0 0 0 0 0 0 0 0 0 0 0 0 0 0 0 0 0 0 0 0 0 0

GEFSMA_con_probscp_234.txt.gz
Probability
8 9 8 7 6 6 7 7 7 6 6 4 3 2 2 4 5 6 5 5 7 8 9 9 8 8 9 10 9 8 10 11 11 12 13 11 9 9 9 8 8 9 9
8 8 7 6 6 6 6 7 7 6 5 4 3 3 3 3 4 4 3 4 6 8 10 10 9 8 9 10 9 10 11 11 10 10 11 10 9 9 9 8 7 7 8
5 6 6 6 5 5 5 5 6 5 4 4 3 3 3 2 2 1 1 1 3 6 8 9 9 8 8 9 9 11 12 12 10 8 7 7 9 9 9 8 6 5 6
4 4 5 6 5 5 5 5 4 4 4 4 3 3 3 2 1 1 0 0 1 3 4 5 6 6 6 6 8 11 13 13 11 7 4 5 7 7 7 7 6 4 4
3 3 4 5 5 4 4 4 4 3 3 3 2 1 2 2 2 1 0 0 0 1 1 2 4 5 5 5 7 10 13 14 12 9 5 4 5 5 6 7 7 5 3
3 3 4 4 4 3 3 4 3 3 3 2 1 0 1 1 1 1 0 0 0 0 0 2 3 3 3 4 6 8 11 13 13 12 8 5 5 6 7 7 7 6 4
3 4 5 4 3 3 3 3 3 3 3 2 1 0 0 0 0 0 0 0 0 0 0 1 2 2 2 4 6 7 10 12 15 15 13 9 6 7 9 8 6 4 3
3 4 5 5 4 3 3 3 3 3 3 2 1 0 0 0 0 0 0 0 0 0 0 0 0 1 2 3 3 5 9 13 15 16 16 13 10 9 9 7 4 2 2
3 3 4 5 4 3 3 3 3 3 3 2 1 1 0 0 0 0 0 0 0 0 0 0 0 0 1 1 1 2 6 10 12 13 15 15 13 11 9 7 4 3 2
1 2 3 5 4 3 3 3 3 3 3 2 1 0 0 0 0 0 0 0 0 0 0 0 0 0 0 0 0 0 2 4 7 9 11 13 14 11 8 7 7 5 4
0 1 2 3 3 2 1 2 2 2 2 2 1 0 0 1 1 0 0 0 0 0 1 1 1 1 1 1 0 0 0 1 2 4 6 9 11 10 8 7 7 7 6
0 0 1 2 2 1 0 1 1 1 1 1 0 0 0 1 1 1 0 0 0 0 1 2 1 2 2 2 1 0 0 0 0 1 2 4 7 8 8 7 7 6 5
0 0 1 2 2 1 1 2 1 0 0 0 0 0 0 1 1 1 1 0 0 0 1 1 1 1 1 2 2 1 0 0 0 0 0 1 3 5 7 7 7 5 5
0 0 1 2 1 1 2 3 2 1 0 0 0 0 0 0 0 0 0 0 0 0 0 0 0 0 1 2 2 2 1 1 0 0 0 0 0 2 3 4 4 4 4
0 0 1 1 0 1 2 3 2 1 0 0 0 0 0 0 0 0 0 0 0 0 0 0 0 0 0 1 1 2 2 1 0 0 0 0 0 0 1 1 3 3 3
0 0 0 0 0 1 2 3 2 1 0 0 0 0 0 0 0 0 0 0 0 0 0 0 0 0 0 0 0 1 1 0 0 0 0 0 0 0 0 1 2 2 1
0 0 0 0 0 1 2 3 2 1 0 0 0 0 0 0 0 0 0 0 0 0 0 0 0 0 0 0 0 0 0 0 0 0 0 0 0 0 0 0 1 1 0
0 0 0 0 0 1 2 3 2 1 0 0 0 0 0 0 0 0 0 0 0 0 0 0 0 0 0 0 0 0 0 0 0 0 0 0 0 0 0 0 0 0 0
0 0 0 0 0 1 2 3 1 0 0 0 0 0 0 0 0 0 0 0 0 0 0 0 0 0 0 0 0 0 0 0 0 0 0 0 0 0 0 0 0 0 0
0 0 0 0 0 1 2 2 1 0 0 0 1 0 0 0 0 0 0 0 0 0 0 0 0 0 0 0 0 0 0 0 0 0 0 0 0 0 0 0 0 0 0
0 0 0 0 0 1 2 2 1 0 0 0 0 0 0 0 0 0 0 0 0 0 0 0 0 0 0 0 0 0 0 0 0 0 0 0 0 0 0 0 0 0 0
0 0 0 0 0 0 1 1 0 0 0 0 0 0 0 0 0 0 0 0 0 0 0 0 0 1 1 1 0 0 0 0 0 0 0 0 0 0 0 0 0 0 0
0 0 0 0 0 0 0 0 0 0 0 0 0 0 0 0 0 0 0 0 0 0 0 0 0 1 2 2 1 0 0 0 1 2 1 0 0 0 0 0 0 0 0
0 0 0 0 0 0 0 0 0 0 0 0 0 0 0 0 0 0 0 0 0 0 0 0 0 1 1 2 1 0 0 0 1 2 2 1 2 1 0 0 0 0 0
0 0 0 0 0 0 0 0 0 0 0 0 0 0 0 0 0 0 0 0 0 0 0 0 0 0 0 1 1 0 0 0 1 1 1 2 2 1 0 0 0 0 0
0 0 0 0 0 0 0 0 0 0 0 0 0 0 0 0 0 0 0 0 0 0 0 0 0 0 0 0 0 0 0 0 0 0 0 1 1 1 0 0 0 0 0

GEFSMA_con_probscp_240.txt.gz
Probability
12 14 17 16 13 14 15 14 13 11 10 8 6 4 3 4 6 8 10 9 6 6 6 6 6 4 4 4 4 5 6 7 9 8 7 7 7 6 5 6 5 3 2
11 13 16 15 14 14 15 15 13 12 10 7 4 4 5 7 8 8 10 10 7 6 7 7 5 4 4 4 5 5 6 8 9 8 7 7 7 6 4 5 6 5 4
9 11 14 14 14 14 15 15 13 11 8 6 4 4 6 9 9 9 9 9 8 7 6 6 4 3 4 4 5 6 8 10 11 11 9 9 7 5 4 3 5 6 6
7 9 12 13 13 14 14 13 11 9 8 7 6 6 7 8 9 8 7 7 7 6 5 4 4 4 3 3 3 5 9 12 15 15 13 11 9 6 4 4 5 5 6
6 9 12 13 12 14 13 10 9 9 8 7 6 6 6 7 8 6 6 6 5 4 4 4 4 4 2 1 1 3 8 13 15 16 15 12 10 8 6 6 6 5 5
7 8 10 11 12 12 11 8 8 8 7 6 5 5 6 6 6 5 5 5 4 3 4 4 4 3 1 0 0 2 6 10 13 14 13 11 10 9 7 7 8 7 6
8 8 8 11 12 12 12 10 9 7 6 4 4 4 5 5 5 4 3 2 2 2 2 3 4 4 3 3 3 4 6 9 13 14 11 10 11 11 9 9 9 8 7
7 6 8 10 11 12 13 14 12 8 6 5 5 4 3 3 3 2 1 1 1 1 2 2 4 5 6 8 7 6 6 9 13 14 12 11 12 13 12 10 10 9 7
5 5 6 8 9 10 12 14 13 10 8 6 6 4 2 1 1 1 1 2 2 3 3 3 4 6 8 9 8 6 6 8 11 13 13 13 14 14 12 10 9 8 7
4 5 5 5 7 8 9 10 11 11 9 7 6 4 2 1 2 1 1 1 1 3 5 6 6 7 9 9 9 7 5 5 7 10 11 13 14 13 11 9 9 8 7
4 4 4 4 6 8 8 8 8 9 8 6 5 4 3 2 2 2 1 1 1 2 4 7 8 8 9 10 9 6 4 3 4 5 6 8 10 10 10 9 9 9 8
1 1 2 3 4 7 8 7 7 7 7 6 5 5 4 3 3 3 3 2 2 2 5 8 9 9 9 10 9 6 3 1 1 2 3 4 5 6 7 8 9 9 9
0 0 1 1 2 4 6 7 8 7 6 6 6 5 4 3 3 4 4 3 2 2 4 7 8 8 9 10 9 6 3 1 0 1 1 2 2 3 4 5 6 7 7
0 0 0 0 0 2 4 6 8 7 6 6 6 5 4 3 3 3 4 3 2 2 3 4 6 7 8 9 8 6 4 2 1 0 0 1 1 1 2 3 3 4 4
0 0 0 0 0 1 3 4 6 6 6 6 6 5 3 4 4 3 3 3 3 2 1 2 5 6 7 8 7 6 5 3 1 0 0 0 0 0 1 1 1 1 1
0 0 0 0 0 1 2 3 4 6 6 6 5 4 2 3 4 4 3 3 2 2 1 2 4 6 6 6 6 7 6 4 2 0 0 0 0 0 0 0 0 0 0
0 0 0 0 0 1 2 3 4 5 6 5 4 3 1 2 3 3 3 2 1 2 2 3 5 6 6 6 7 8 8 6 4 1 0 0 0 0 0 0 0 0 0
0 0 0 0 0 1 2 3 4 5 4 4 3 3 1 1 3 3 3 2 2 3 4 5 7 6 6 7 7 7 7 6 5 1 0 0 0 0 0 0 0 0 0
0 1 1 0 0 1 2 2 3 3 3 3 3 3 2 2 4 4 3 3 3 3 4 6 7 6 5 5 5 4 4 4 3 1 0 0 0 0 0 0 0 0 0
1 2 2 1 1 1 1 1 2 3 4 4 4 3 2 2 4 4 3 3 3 3 4 4 5 4 4 3 3 2 3 4 3 1 1 1 0 0 0 0 0 0 0
1 2 2 2 2 1 0 0 2 3 5 5 5 4 2 2 3 3 2 3 3 3 4 3 3 3 3 3 3 2 2 4 4 3 2 2 1 1 1 0 0 0 0
1 1 1 1 1 1 0 0 1 3 4 5 5 5 4 2 1 1 1 1 1 2 3 3 2 1 2 3 4 3 2 4 4 4 4 3 3 3 3 1 0 0 0
2 1 0 0 0 0 0 0 0 1 2 4 5 6 5 3 2 2 1 0 1 1 2 2 1 1 1 2 4 3 2 3 4 5 4 4 3 3 3 2 0 0 0
3 1 0 0 0 0 0 0 0 0 1 3 5 6 6 5 3 2 2 1 1 1 1 0 0 0 0 1 2 2 1 2 2 3 4 4 3 3 3 3 1 0 0
4 1 0 0 0 0 0 0 0 0 2 3 4 4 5 4 3 2 2 2 2 1 0 0 0 0 0 0 1 1 0 0 0 1 3 4 4 3 3 3 2 0 0
4 2 0 0 0 0 0 0 0 0 1 3 3 3 2 2 1 1 1 2 2 2 1 0 0 0 0 0 0 0 0 0 0 1 3 4 4 3 3 2 1 0 0

GEFSMA_con_probscp_246.txt.gz
Probability
11 13 14 14 12 12 14 14 12 10 7 4 2 2 2 2 5 9 15 20 20 17 13 9 7 6 6 7 8 9 9 9 9 8 8 8 8 9 11 10 7 6 6
12 13 13 13 13 14 16 15 13 11 9 7 5 3 3 4 5 8 13 17 18 16 14 12 10 8 7 8 9 10 10 11 11 11 10 9 9 10 11 11 9 7 6
14 14 12 12 14 16 17 17 15 13 11 9 7 5 6 7 6 6 9 12 13 12 14 15 14 12 10 9 9 9 9 11 12 13 12 10 10 10 11 12 11 9 7
15 14 13 13 15 16 16 16 15 13 11 9 6 5 7 10 9 6 7 8 8 8 10 12 15 15 12 9 8 8 9 11 13 15 14 12 12 12 12 13 12 10 8
16 15 14 15 16 16 15 14 12 10 8 7 5 4 7 10 9 7 6 7 7 7 6 8 12 14 12 9 8 8 10 13 15 15 15 14 14 14 14 13 12 9 7
16 15 14 16 17 15 13 12 10 7 6 5 3 3 4 6 6 6 6 6 7 8 6 5 8 9 9 9 9 8 9 12 15 15 15 15 14 14 15 14 11 7 4
15 15 15 17 18 16 13 10 8 6 4 3 2 1 2 3 4 5 6 6 7 8 7 5 4 4 5 7 8 8 9 10 13 14 14 14 14 14 14 13 10 5 2
15 13 14 15 17 16 13 10 8 7 5 3 2 1 1 2 2 4 5 6 6 7 6 4 2 2 3 5 6 8 10 11 12 12 12 13 13 13 12 11 9 5 3
14 12 10 10 11 12 12 11 10 10 9 6 4 2 1 1 1 1 3 4 5 6 6 4 2 3 4 5 5 6 8 9 10 10 11 12 12 12 11 9 9 7 6
11 9 6 6 7 8 9 9 9 10 10 8 6 4 2 2 1 0 1 2 4 6 7 6 5 5 6 7 6 5 4 5 7 8 9 11 12 11 10 8 9 9 7
9 7 4 5 6 6 7 8 7 7 8 8 6 4 3 3 2 1 0 1 1 3 6 7 7 8 8 8 7 5 2 2 3 5 7 10 11 11 9 8 7 8 7
9 7 5 4 4 4 5 6 6 5 6 6 6 4 3 3 2 1 0 0 0 1 4 6 7 9 9 8 5 3 2 1 1 2 4 6 9 9 7 6 5 5 6
9 7 5 5 5 4 3 4 5 5 5 6 6 5 4 3 2 1 0 1 1 1 2 3 5 8 9 7 5 2 1 0 0 0 1 3 5 7 6 4 4 4 4
9 7 6 7 7 5 4 4 5 6 6 6 6 6 5 3 2 1 1 2 2 2 1 1 3 7 10 9 5 2 1 1 0 0 0 1 4 5 4 3 3 3 3
9 7 6 7 7 6 5 5 6 6 6 5 5 5 5 4 3 2 2 2 2 2 0 0 1 5 9 7 3 2 3 2 0 0 0 2 3 3 3 3 3 3 2
9 8 7 6 5 5 5 6 6 5 5 4 5 6 6 5 4 2 1 2 3 2 1 0 1 4 5 4 2 4 5 3 0 0 0 1 2 3 2 2 2 1 1
9 8 7 5 4 4 4 5 5 4 5 6 7 8 8 7 6 3 1 1 2 2 1 1 3 4 4 3 3 5 6 4 1 0 0 0 1 2 2 1 1 0 0
9 8 6 4 3 3 3 4 5 5 5 7 8 10 10 9 7 6 4 2 1 1 1 3 4 5 5 4 4 4 4 3 2 0 0 0 0 1 1 0 0 0 0
10 8 5 4 3 3 3 4 5 5 5 6 7 10 10 9 8 8 7 5 3 2 3 3 4 4 4 3 3 2 1 1 1 0 0 0 0 0 0 0 0 0 0
10 8 6 4 3 3 3 3 4 4 5 6 8 9 9 8 8 8 7 6 5 5 5 4 3 3 4 3 2 1 0 0 0 0 0 0 0 0 0 0 0 0 0
9 9 7 5 3 2 1 1 2 3 5 6 8 9 9 7 5 3 3 4 4 5 5 5 4 4 4 4 2 1 1 0 0 0 0 0 0 0 0 0 0 0 0
11 10 9 6 3 1 0 0 1 2 4 6 8 9 7 5 2 1 0 1 2 2 2 4 4 4 4 4 3 3 2 1 1 1 1 0 0 0 0 0 0 0 0
14 13 11 9 5 2 0 0 0 1 3 5 8 9 8 5 2 0 0 0 0 0 1 2 3 2 2 2 2 2 2 2 2 2 2 1 0 0 0 0 0 0 0
19 17 15 13 10 4 0 0 0 0 2 4 6 9 10 6 2 0 0 0 0 1 0 0 1 1 0 1 1 1 1 2 3 3 3 2 1 1 0 0 0 0 0
20 18 16 15 13 7 2 0 0 0 2 2 3 5 7 5 1 0 0 0 0 0 0 0 0 0 0 0 0 0 0 1 1 2 3 3 3 2 1 0 0 0 0
20 17 14 14 14 10 4 1 0 0 1 1 1 1 2 2 1 0 0 0 0 0 0 0 0 0 0 0 0 0 0 0 0 1 2 3 3 3 2 1 0 0 0

GEFSMA_con_probscp_252.txt.gz
Probability
1 0 0 2 4 5 3 3 3 3 3 1 0 0 0 0 0 1 3 6 7 7 7 6 5 4 5 5 4 4 5 6 6 7 8 10 12 12 11 10 8 4 2
2 1 1 3 4 3 2 2 2 3 3 2 1 0 0 0 0 1 2 5 7 8 7 6 6 5 4 4 4 4 5 5 5 6 7 9 11 10 9 9 8 5 4
4 3 3 4 3 1 1 1 1 3 3 2 1 0 0 0 0 0 1 3 6 8 7 7 7 6 4 3 3 3 4 4 5 6 6 8 10 9 8 7 7 6 5
4 3 3 3 1 1 1 1 1 2 3 2 1 0 0 0 0 0 0 1 3 5 6 6 7 6 4 3 2 1 2 4 5 6 5 6 9 8 7 6 7 6 5
3 3 2 1 0 0 1 1 0 1 2 2 1 0 0 1 0 0 0 0 1 3 3 4 5 5 4 4 3 1 1 2 3 4 4 5 6 6 5 5 6 6 6
3 2 1 0 0 0 0 0 0 0 1 1 0 0 0 0 0 0 0 0 0 1 1 2 3 4 4 5 5 4 3 2 2 4 5 5 6 6 5 4 6 6 6
2 1 0 0 0 0 0 0 0 0 0 0 0 0 0 0 0 0 0 0 0 0 0 1 3 3 4 5 5 6 6 5 5 6 7 8 7 7 6 6 6 7 7
1 0 0 0 0 0 0 0 0 0 0 0 0 0 0 0 0 0 0 0 0 0 0 1 2 3 4 4 5 6 8 8 7 7 7 8 8 8 9 9 9 9 9
1 0 0 0 0 0 0 0 0 0 0 0 0 0 0 0 0 0 0 0 0 0 0 0 1 2 3 3 3 6 8 9 8 8 8 8 7 8 9 11 11 10 9
1 0 0 0 0 0 0 0 0 1 1 0 0 0 0 0 0 0 0 0 0 1 0 0 0 1 1 1 1 3 5 6 7 8 9 8 7 7 7 8 9 8 7
2 2 1 1 1 1 0 0 0 1 2 1 0 0 0 0 0 0 0 0 0 0 0 1 1 0 0 0 0 1 2 3 4 6 7 7 6 6 5 5 5 5 5
4 4 3 2 2 2 1 1 1 2 2 1 0 0 0 0 0 0 0 0 0 0 0 1 1 0 0 0 0 0 0 1 1 3 4 5 5 5 4 4 4 5 6
5 5 4 3 3 3 3 2 3 3 2 1 0 0 0 0 0 0 0 0 0 0 0 1 1 0 0 0 0 0 0 0 0 1 1 2 3 3 3 3 5 5 6
4 4 3 3 3 3 3 3 3 2 1 0 0 0 0 0 0 0 0 0 0 0 0 0 0 0 0 0 0 0 0 0 0 0 0 1 1 1 1 2 3 3 4
3 3 3 3 3 3 3 3 3 1 0 0 0 0 0 0 0 0 0 0 0 0 0 0 0 0 0 0 0 0 0 0 0 0 0 0 0 0 0 1 1 1 2
3 3 3 3 3 3 3 3 2 1 0 0 0 0 0 0 0 0 0 0 0 0 0 0 0 0 0 0 0 0 0 0 0 0 0 0 0 0 0 0 0 0 1
3 3 3 3 3 3 3 3 1 0 0 0 0 0 0 0 0 0 0 0 0 0 0 0 0 0 0 0 0 0 0 0 0 0 0 0 0 0 0 0 0 0 0
3 3 3 3 3 3 3 2 1 0 0 0 0 0 0 0 0 0 0 0 0 0 0 0 0 0 0 0 0 0 0 0 0 0 0 0 0 0 0 0 0 0 0
3 3 3 3 3 2 1 1 0 0 0 0 0 0 0 0 0 0 0 0 0 0 0 0 0 0 0 0 0 0 0 0 0 0 0 0 0 0 0 0 0 0 0
3 3 3 3 2 1 0 0 0 0 0 0 0 0 0 0 0 0 0 0 0 0 0 0 0 0 0 0 0 0 0 0 0 0 0 0 0 0 0 0 0 0 0
1 2 3 2 1 0 0 0 0 0 0 0 0 0 0 0 0 0 0 0 0 0 0 0 0 0 0 0 0 0 0 0 0 0 0 0 0 0 0 0 0 0 0
0 1 2 1 0 0 0 0 0 0 0 0 0 0 0 0 0 0 0 0 0 0 0 0 0 0 0 0 0 0 0 0 0 0 0 0 0 0 0 0 0 0 0
0 0 0 0 0 0 0 0 0 0 0 0 0 0 0 0 0 0 0 0 0 0 0 0 0 0 0 0 0 0 0 0 0 0 0 0 0 0 0 0 0 0 0
0 0 0 0 0 0 0 0 0 0 0 0 0 0 0 0 0 0 0 0 0 0 0 0 0 0 0 0 0 0 0 0 0 0 0 0 0 0 0 0 0 0 0
1 1 0 0 0 0 0 0 0 0 0 0 0 0 0 0 0 0 0 0 0 0 0 0 0 0 0 0 0 0 0 0 0 0 0 0 0 0 0 0 0 0 0
4 2 1 0 0 0 0 0 0 0 0 0 0 0 0 0 0 0 0 0 0 0 0 0 0 0 0 0 0 0 0 0 0 0 0 0 0 0 0 0 0 0 0